Wetterdaten: Sonntag, 27.08.2023
Datum Zeit Temp. Aussen Temp. o. S. Temp +5cm Feuchte Auss Luftdruck Regen Sonnenschein Regendauer Solar Windben Empfang
27.08.2023 00:00 17,0 C 15,6 C 11,7 C 91 % 1011,3 hPa 0,0 l/m 0 min 0 min 0 W/m 0,0 km/h (0 Bft) 97,87 %
27.08.2023 00:02 17,0 C 15,6 C 11,7 C 91 % 1011,3 hPa 0,0 l/m 0 min 0 min 0 W/m 0,0 km/h (0 Bft) 11,76 %
27.08.2023 00:04 17,0 C 15,6 C 11,7 C 91 % 1011,3 hPa 0,0 l/m 0 min 0 min 0 W/m 0,0 km/h (0 Bft) 85,11 %
27.08.2023 00:08 16,9 C 15,6 C 11,7 C 92 % 1011,4 hPa 0,0 l/m 0 min 0 min 0 W/m 0,0 km/h (0 Bft) 97,73 %
27.08.2023 00:10 16,9 C 15,6 C 11,7 C 92 % 1011,4 hPa 0,0 l/m 0 min 0 min 0 W/m 0,0 km/h (0 Bft) 100,00 %
27.08.2023 00:12 16,9 C 15,6 C 11,7 C 92 % 1011,5 hPa 0,0 l/m 0 min 0 min 0 W/m 3,2 km/h (1 Bft) 97,87 %
27.08.2023 00:14 16,9 C 15,6 C 12,2 C 92 % 1011,6 hPa 0,0 l/m 0 min 0 min 0 W/m 3,2 km/h (1 Bft) 100,00 %
27.08.2023 00:16 16,9 C 16,1 C 12,2 C 92 % 1011,6 hPa 0,0 l/m 0 min 0 min 0 W/m 3,2 km/h (1 Bft) 97,87 %
27.08.2023 00:18 16,9 C 16,1 C 12,2 C 92 % 1011,7 hPa 0,0 l/m 0 min 2 min 0 W/m 6,4 km/h (2 Bft) 100,00 %
27.08.2023 00:20 16,9 C 16,1 C 11,7 C 92 % 1011,6 hPa 0,4 l/m 0 min 2 min 0 W/m 3,2 km/h (1 Bft) 100,00 %
27.08.2023 00:22 16,9 C 15,6 C 11,7 C 92 % 1011,6 hPa 0,2 l/m 0 min 2 min 0 W/m 3,2 km/h (1 Bft) 97,87 %
27.08.2023 00:24 16,9 C 15,6 C 11,7 C 92 % 1011,6 hPa 0,2 l/m 0 min 2 min 0 W/m 3,2 km/h (1 Bft) 100,00 %
27.08.2023 00:26 16,9 C 15,6 C 11,7 C 92 % 1011,5 hPa 0,0 l/m 0 min 2 min 0 W/m 3,2 km/h (1 Bft) 100,00 %
27.08.2023 00:28 16,9 C 15,6 C 11,7 C 92 % 1011,4 hPa 0,0 l/m 0 min 2 min 0 W/m 0,0 km/h (0 Bft) 100,00 %
27.08.2023 00:30 16,9 C 15,6 C 11,7 C 93 % 1011,3 hPa 0,0 l/m 0 min 0 min 0 W/m 0,0 km/h (0 Bft) 97,87 %
27.08.2023 00:32 16,9 C 15,6 C 11,7 C 93 % 1011,3 hPa 0,0 l/m 0 min 0 min 0 W/m 0,0 km/h (0 Bft) 100,00 %
27.08.2023 00:34 16,8 C 15,6 C 11,7 C 93 % 1011,3 hPa 0,0 l/m 0 min 0 min 0 W/m 0,0 km/h (0 Bft) 97,87 %
27.08.2023 00:36 16,8 C 15,6 C 11,7 C 93 % 1011,4 hPa 0,0 l/m 0 min 0 min 0 W/m 0,0 km/h (0 Bft) 100,00 %
27.08.2023 00:38 16,8 C 15,6 C 11,7 C 93 % 1011,3 hPa 0,0 l/m 0 min 0 min 0 W/m 6,4 km/h (2 Bft) 100,00 %
27.08.2023 00:40 16,8 C 15,6 C 11,7 C 93 % 1011,3 hPa 0,0 l/m 0 min 0 min 0 W/m 6,4 km/h (2 Bft) 97,87 %
27.08.2023 00:42 16,8 C 15,6 C 11,7 C 93 % 1011,3 hPa 0,0 l/m 0 min 0 min 0 W/m 3,2 km/h (1 Bft) 95,74 %
27.08.2023 00:44 16,7 C 15,6 C 11,7 C 93 % 1011,3 hPa 0,0 l/m 0 min 0 min 0 W/m 3,2 km/h (1 Bft) 95,74 %
27.08.2023 00:46 16,7 C 15,0 C 11,7 C 93 % 1011,3 hPa 0,0 l/m 0 min 0 min 0 W/m 3,2 km/h (1 Bft) 95,74 %
27.08.2023 00:48 16,7 C 15,6 C 11,7 C 93 % 1011,3 hPa 0,0 l/m 0 min 0 min 0 W/m 3,2 km/h (1 Bft) 95,65 %
27.08.2023 00:50 16,7 C 15,0 C 11,7 C 93 % 1011,3 hPa 0,0 l/m 0 min 0 min 0 W/m 3,2 km/h (1 Bft) 97,87 %
27.08.2023 00:52 16,7 C 15,6 C 11,7 C 93 % 1011,2 hPa 0,0 l/m 0 min 0 min 0 W/m 3,2 km/h (1 Bft) 97,87 %
27.08.2023 00:54 16,6 C 15,0 C 11,7 C 93 % 1011,3 hPa 0,0 l/m 0 min 0 min 0 W/m 3,2 km/h (1 Bft) 95,74 %
27.08.2023 00:56 16,6 C 15,0 C 11,7 C 93 % 1011,3 hPa 0,0 l/m 0 min 0 min 0 W/m 0,0 km/h (0 Bft) 97,87 %
27.08.2023 00:58 16,6 C 15,0 C 11,7 C 93 % 1011,1 hPa 0,0 l/m 0 min 0 min 0 W/m 0,0 km/h (0 Bft) 93,48 %
27.08.2023 01:00 16,5 C 15,0 C 11,7 C 94 % 1011,1 hPa 0,0 l/m 0 min 0 min 0 W/m 0,0 km/h (0 Bft) 97,87 %
27.08.2023 01:02 16,5 C 15,0 C 11,1 C 94 % 1011,1 hPa 0,0 l/m 0 min 0 min 0 W/m 0,0 km/h (0 Bft) 97,87 %
27.08.2023 01:04 16,4 C 15,0 C 11,1 C 94 % 1011,0 hPa 0,0 l/m 0 min 0 min 0 W/m 0,0 km/h (0 Bft) 95,24 %
27.08.2023 01:06 16,4 C 15,0 C 11,1 C 94 % 1011,0 hPa 0,0 l/m 0 min 0 min 0 W/m 0,0 km/h (0 Bft) 96,61 %
27.08.2023 01:08 16,4 C 15,0 C 11,1 C 94 % 1011,0 hPa 0,0 l/m 0 min 0 min 0 W/m 0,0 km/h (0 Bft) 94,29 %
27.08.2023 01:10 16,3 C 15,0 C 11,1 C 94 % 1011,0 hPa 0,0 l/m 0 min 0 min 0 W/m 0,0 km/h (0 Bft) 93,62 %
27.08.2023 01:12 16,3 C 15,0 C 11,1 C 94 % 1010,9 hPa 0,0 l/m 0 min 0 min 0 W/m 0,0 km/h (0 Bft) 95,74 %
27.08.2023 01:14 16,2 C 15,0 C 11,1 C 94 % 1010,9 hPa 0,0 l/m 0 min 0 min 0 W/m 0,0 km/h (0 Bft) 95,65 %
27.08.2023 01:16 16,2 C 14,4 C 11,1 C 94 % 1010,9 hPa 0,0 l/m 0 min 0 min 0 W/m 0,0 km/h (0 Bft) 95,74 %
27.08.2023 01:18 16,1 C 14,4 C 11,1 C 94 % 1010,9 hPa 0,0 l/m 0 min 0 min 0 W/m 0,0 km/h (0 Bft) 93,62 %
27.08.2023 01:20 16,1 C 14,4 C 11,1 C 94 % 1011,0 hPa 0,0 l/m 0 min 0 min 0 W/m 0,0 km/h (0 Bft) 95,74 %
27.08.2023 01:22 16,1 C 14,4 C 11,1 C 94 % 1011,0 hPa 0,0 l/m 0 min 0 min 0 W/m 0,0 km/h (0 Bft) 93,62 %
27.08.2023 01:24 16,0 C 14,4 C 11,1 C 94 % 1011,0 hPa 0,0 l/m 0 min 0 min 0 W/m 0,0 km/h (0 Bft) 93,62 %
27.08.2023 01:26 15,9 C 14,4 C 11,1 C 94 % 1011,0 hPa 0,0 l/m 0 min 0 min 0 W/m 0,0 km/h (0 Bft) 95,65 %
27.08.2023 01:28 15,9 C 14,4 C 11,1 C 94 % 1011,0 hPa 0,0 l/m 0 min 0 min 0 W/m 0,0 km/h (0 Bft) 95,74 %
27.08.2023 01:30 15,9 C 14,4 C 11,1 C 94 % 1011,0 hPa 0,0 l/m 0 min 0 min 0 W/m 0,0 km/h (0 Bft) 97,87 %
27.08.2023 01:32 15,8 C 14,4 C 11,1 C 94 % 1010,9 hPa 0,0 l/m 0 min 0 min 0 W/m 0,0 km/h (0 Bft) 97,87 %
27.08.2023 01:34 15,8 C 14,4 C 11,1 C 94 % 1010,8 hPa 0,0 l/m 0 min 0 min 0 W/m 0,0 km/h (0 Bft) 100,00 %
27.08.2023 01:36 15,8 C 14,4 C 11,1 C 94 % 1010,7 hPa 0,0 l/m 0 min 0 min 0 W/m 0,0 km/h (0 Bft) 100,00 %
27.08.2023 01:38 15,8 C 14,4 C 11,1 C 94 % 1010,8 hPa 0,0 l/m 0 min 0 min 0 W/m 0,0 km/h (0 Bft) 100,00 %
27.08.2023 01:40 15,7 C 14,4 C 11,1 C 94 % 1010,8 hPa 0,0 l/m 0 min 0 min 0 W/m 0,0 km/h (0 Bft) 100,00 %
27.08.2023 01:42 15,7 C 14,4 C 10,6 C 94 % 1010,9 hPa 0,0 l/m 0 min 0 min 0 W/m 0,0 km/h (0 Bft) 97,87 %
27.08.2023 01:44 15,7 C 14,4 C 11,1 C 94 % 1010,9 hPa 0,0 l/m 0 min 0 min 0 W/m 0,0 km/h (0 Bft) 100,00 %
27.08.2023 01:46 15,7 C 14,4 C 11,1 C 94 % 1010,8 hPa 0,0 l/m 0 min 0 min 0 W/m 0,0 km/h (0 Bft) 100,00 %
27.08.2023 01:48 15,7 C 14,4 C 11,1 C 94 % 1010,8 hPa 0,0 l/m 0 min 0 min 0 W/m 0,0 km/h (0 Bft) 100,00 %
27.08.2023 01:50 15,6 C 14,4 C 11,1 C 94 % 1010,8 hPa 0,0 l/m 0 min 0 min 0 W/m 0,0 km/h (0 Bft) 100,00 %
27.08.2023 01:52 15,6 C 14,4 C 11,1 C 94 % 1010,8 hPa 0,0 l/m 0 min 0 min 0 W/m 0,0 km/h (0 Bft) 100,00 %
27.08.2023 01:54 15,6 C 14,4 C 11,1 C 94 % 1010,8 hPa 0,0 l/m 0 min 0 min 0 W/m 0,0 km/h (0 Bft) 100,00 %
27.08.2023 01:56 15,6 C 14,4 C 11,1 C 94 % 1010,8 hPa 0,0 l/m 0 min 0 min 0 W/m 0,0 km/h (0 Bft) 100,00 %
27.08.2023 01:58 15,6 C 14,4 C 11,1 C 94 % 1010,7 hPa 0,0 l/m 0 min 0 min 0 W/m 0,0 km/h (0 Bft) 100,00 %
27.08.2023 02:00 15,6 C 14,4 C 10,6 C 94 % 1010,7 hPa 0,0 l/m 0 min 0 min 0 W/m 0,0 km/h (0 Bft) 100,00 %
27.08.2023 02:06 15,5 C 14,4 C 10,6 C 94 % 1010,5 hPa 0,0 l/m 0 min 0 min 0 W/m 0,0 km/h (0 Bft) 100,00 %
27.08.2023 02:11 15,5 C 14,4 C 10,6 C 95 % 1010,5 hPa 0,0 l/m 0 min 0 min 0 W/m 0,0 km/h (0 Bft) 96,55 %
27.08.2023 02:12 15,5 C 14,4 C 10,6 C 95 % 1010,5 hPa 0,0 l/m 0 min 0 min 0 W/m 0,0 km/h (0 Bft) 100,00 %
27.08.2023 02:14 15,5 C 14,4 C 10,6 C 95 % 1010,5 hPa 0,0 l/m 0 min 0 min 0 W/m 0,0 km/h (0 Bft) 100,00 %
27.08.2023 02:16 15,5 C 14,4 C 10,6 C 95 % 1010,5 hPa 0,0 l/m 0 min 0 min 0 W/m 0,0 km/h (0 Bft) 97,87 %
27.08.2023 02:18 15,4 C 14,4 C 10,6 C 95 % 1010,5 hPa 0,0 l/m 0 min 0 min 0 W/m 0,0 km/h (0 Bft) 100,00 %
27.08.2023 02:20 15,4 C 14,4 C 10,6 C 95 % 1010,5 hPa 0,0 l/m 0 min 0 min 0 W/m 0,0 km/h (0 Bft) 100,00 %
27.08.2023 02:28 15,4 C 13,9 C 10,6 C 95 % 1010,2 hPa 0,0 l/m 0 min 0 min 0 W/m 0,0 km/h (0 Bft) 100,00 %
27.08.2023 02:30 15,4 C 13,9 C 10,6 C 95 % 1010,2 hPa 0,0 l/m 0 min 0 min 0 W/m 0,0 km/h (0 Bft) 97,14 %
27.08.2023 02:32 15,4 C 13,9 C 10,6 C 95 % 1010,1 hPa 0,0 l/m 0 min 0 min 0 W/m 0,0 km/h (0 Bft) 93,62 %
27.08.2023 02:34 15,3 C 13,9 C 10,6 C 95 % 1010,0 hPa 0,0 l/m 0 min 0 min 0 W/m 0,0 km/h (0 Bft) 95,74 %
27.08.2023 02:36 15,3 C 13,9 C 10,6 C 95 % 1010,0 hPa 0,0 l/m 0 min 0 min 0 W/m 0,0 km/h (0 Bft) 97,83 %
27.08.2023 02:38 15,3 C 13,9 C 10,6 C 95 % 1010,0 hPa 0,0 l/m 0 min 0 min 0 W/m 0,0 km/h (0 Bft) 95,74 %
27.08.2023 02:40 15,3 C 13,9 C 10,6 C 95 % 1010,0 hPa 0,0 l/m 0 min 0 min 0 W/m 0,0 km/h (0 Bft) 95,74 %
27.08.2023 02:42 15,2 C 13,9 C 10,6 C 95 % 1010,0 hPa 0,0 l/m 0 min 0 min 0 W/m 0,0 km/h (0 Bft) 97,87 %
27.08.2023 02:44 15,2 C 13,9 C 10,6 C 95 % 1009,9 hPa 0,0 l/m 0 min 0 min 0 W/m 0,0 km/h (0 Bft) 97,87 %
27.08.2023 02:46 15,2 C 13,9 C 10,6 C 95 % 1009,8 hPa 0,0 l/m 0 min 0 min 0 W/m 0,0 km/h (0 Bft) 97,87 %
27.08.2023 02:48 15,2 C 13,9 C 10,6 C 95 % 1009,8 hPa 0,0 l/m 0 min 0 min 0 W/m 0,0 km/h (0 Bft) 93,48 %
27.08.2023 02:50 15,1 C 13,9 C 10,6 C 95 % 1009,7 hPa 0,0 l/m 0 min 0 min 0 W/m 0,0 km/h (0 Bft) 95,74 %
27.08.2023 02:52 15,1 C 13,9 C 10,6 C 95 % 1009,8 hPa 0,0 l/m 0 min 0 min 0 W/m 0,0 km/h (0 Bft) 93,62 %
27.08.2023 02:54 15,1 C 13,9 C 10,0 C 95 % 1009,7 hPa 0,0 l/m 0 min 0 min 0 W/m 0,0 km/h (0 Bft) 95,74 %
27.08.2023 02:56 15,1 C 13,9 C 10,0 C 95 % 1009,7 hPa 0,0 l/m 0 min 0 min 0 W/m 0,0 km/h (0 Bft) 95,74 %
27.08.2023 02:58 15,1 C 13,9 C 10,0 C 95 % 1009,7 hPa 0,0 l/m 0 min 0 min 0 W/m 0,0 km/h (0 Bft) 93,62 %
27.08.2023 03:00 15,1 C 13,9 C 10,0 C 95 % 1009,8 hPa 0,0 l/m 0 min 0 min 0 W/m 0,0 km/h (0 Bft) 95,65 %
27.08.2023 03:02 15,1 C 13,9 C 10,0 C 95 % 1009,7 hPa 0,0 l/m 0 min 0 min 0 W/m 0,0 km/h (0 Bft) 95,74 %
27.08.2023 03:05 15,0 C 13,9 C 10,0 C 95 % 1009,7 hPa 0,0 l/m 0 min 0 min 0 W/m 0,0 km/h (0 Bft) 98,25 %
27.08.2023 03:08 14,9 C 13,9 C 10,0 C 95 % 1009,8 hPa 0,0 l/m 0 min 0 min 0 W/m 0,0 km/h (0 Bft) 100,00 %
27.08.2023 03:10 14,9 C 13,3 C 10,0 C 95 % 1009,8 hPa 0,0 l/m 0 min 0 min 0 W/m 0,0 km/h (0 Bft) 97,92 %
27.08.2023 03:12 14,9 C 13,3 C 10,0 C 95 % 1009,8 hPa 0,0 l/m 0 min 0 min 0 W/m 0,0 km/h (0 Bft) 95,65 %
27.08.2023 03:14 14,8 C 13,3 C 10,0 C 95 % 1009,8 hPa 0,0 l/m 0 min 0 min 0 W/m 0,0 km/h (0 Bft) 91,49 %
27.08.2023 03:16 14,8 C 13,3 C 10,0 C 95 % 1009,7 hPa 0,0 l/m 0 min 0 min 0 W/m 0,0 km/h (0 Bft) 93,62 %
27.08.2023 03:18 14,8 C 13,3 C 10,0 C 95 % 1009,8 hPa 0,0 l/m 0 min 0 min 0 W/m 0,0 km/h (0 Bft) 95,74 %
27.08.2023 03:20 14,8 C 13,3 C 10,0 C 95 % 1009,8 hPa 0,0 l/m 0 min 0 min 0 W/m 0,0 km/h (0 Bft) 91,49 %
27.08.2023 03:22 14,8 C 13,3 C 10,0 C 95 % 1009,9 hPa 0,0 l/m 0 min 0 min 0 W/m 0,0 km/h (0 Bft) 95,74 %
27.08.2023 03:24 14,7 C 13,3 C 10,0 C 95 % 1010,0 hPa 0,0 l/m 0 min 0 min 0 W/m 0,0 km/h (0 Bft) 93,62 %
27.08.2023 03:26 14,7 C 13,3 C 10,0 C 96 % 1010,0 hPa 0,0 l/m 0 min 0 min 0 W/m 0,0 km/h (0 Bft) 95,65 %
27.08.2023 03:31 14,7 C 13,3 C 10,0 C 96 % 1010,2 hPa 0,0 l/m 0 min 0 min 0 W/m 0,0 km/h (0 Bft) 100,00 %
27.08.2023 03:32 14,7 C 13,3 C 10,0 C 96 % 1010,2 hPa 0,0 l/m 0 min 0 min 0 W/m 0,0 km/h (0 Bft) 91,67 %
27.08.2023 03:34 14,7 C 13,3 C 10,0 C 96 % 1010,3 hPa 0,0 l/m 0 min 0 min 0 W/m 0,0 km/h (0 Bft) 100,00 %
27.08.2023 03:36 14,7 C 13,3 C 10,0 C 96 % 1010,3 hPa 0,0 l/m 0 min 0 min 0 W/m 0,0 km/h (0 Bft) 95,74 %
27.08.2023 03:38 14,7 C 13,3 C 10,0 C 96 % 1010,3 hPa 0,0 l/m 0 min 0 min 0 W/m 0,0 km/h (0 Bft) 95,65 %
27.08.2023 03:40 14,7 C 13,3 C 10,0 C 96 % 1010,3 hPa 0,0 l/m 0 min 0 min 0 W/m 0,0 km/h (0 Bft) 93,62 %
27.08.2023 03:42 14,7 C 13,3 C 10,0 C 96 % 1010,3 hPa 0,0 l/m 0 min 0 min 0 W/m 0,0 km/h (0 Bft) 97,87 %
27.08.2023 03:44 14,6 C 13,3 C 10,0 C 96 % 1010,3 hPa 0,0 l/m 0 min 0 min 0 W/m 0,0 km/h (0 Bft) 97,87 %
27.08.2023 03:46 14,6 C 13,3 C 10,0 C 96 % 1010,3 hPa 0,0 l/m 0 min 0 min 0 W/m 0,0 km/h (0 Bft) 100,00 %
27.08.2023 03:48 14,6 C 13,3 C 10,0 C 96 % 1010,3 hPa 0,0 l/m 0 min 0 min 0 W/m 0,0 km/h (0 Bft) 97,87 %
27.08.2023 03:50 14,6 C 13,3 C 10,0 C 96 % 1010,3 hPa 0,0 l/m 0 min 0 min 0 W/m 0,0 km/h (0 Bft) 100,00 %
27.08.2023 03:52 14,6 C 13,3 C 9,4 C 96 % 1010,4 hPa 0,0 l/m 0 min 0 min 0 W/m 0,0 km/h (0 Bft) 100,00 %
27.08.2023 03:54 14,5 C 13,3 C 10,0 C 96 % 1010,3 hPa 0,0 l/m 0 min 0 min 0 W/m 0,0 km/h (0 Bft) 100,00 %
27.08.2023 03:56 14,5 C 13,3 C 10,0 C 96 % 1010,3 hPa 0,0 l/m 0 min 0 min 0 W/m 0,0 km/h (0 Bft) 97,87 %
27.08.2023 03:58 14,5 C 13,3 C 10,0 C 96 % 1010,3 hPa 0,0 l/m 0 min 0 min 0 W/m 0,0 km/h (0 Bft) 100,00 %
27.08.2023 04:00 14,4 C 13,3 C 10,0 C 96 % 1010,1 hPa 0,0 l/m 0 min 0 min 0 W/m 0,0 km/h (0 Bft) 100,00 %
27.08.2023 04:02 14,4 C 13,3 C 9,4 C 96 % 1010,0 hPa 0,0 l/m 0 min 0 min 0 W/m 0,0 km/h (0 Bft) 97,87 %
27.08.2023 04:04 14,4 C 13,3 C 10,0 C 96 % 1010,0 hPa 0,0 l/m 0 min 0 min 0 W/m 0,0 km/h (0 Bft) 100,00 %
27.08.2023 04:06 14,4 C 13,3 C 10,0 C 96 % 1010,0 hPa 0,0 l/m 0 min 0 min 0 W/m 0,0 km/h (0 Bft) 100,00 %
27.08.2023 04:08 14,4 C 13,3 C 9,4 C 96 % 1010,0 hPa 0,0 l/m 0 min 0 min 0 W/m 0,0 km/h (0 Bft) 97,14 %
27.08.2023 04:10 14,3 C 13,3 C 9,4 C 96 % 1010,1 hPa 0,0 l/m 0 min 0 min 0 W/m 0,0 km/h (0 Bft) 100,00 %
27.08.2023 04:12 14,3 C 13,3 C 9,4 C 96 % 1010,1 hPa 0,0 l/m 0 min 0 min 0 W/m 0,0 km/h (0 Bft) 100,00 %
27.08.2023 04:14 14,3 C 13,3 C 9,4 C 96 % 1010,1 hPa 0,0 l/m 0 min 0 min 0 W/m 0,0 km/h (0 Bft) 97,87 %
27.08.2023 04:16 14,3 C 13,3 C 9,4 C 96 % 1010,1 hPa 0,0 l/m 0 min 0 min 0 W/m 0,0 km/h (0 Bft) 100,00 %
27.08.2023 04:18 14,3 C 13,3 C 9,4 C 96 % 1010,1 hPa 0,0 l/m 0 min 0 min 0 W/m 0,0 km/h (0 Bft) 100,00 %
27.08.2023 04:20 14,3 C 12,8 C 9,4 C 96 % 1010,1 hPa 0,0 l/m 0 min 0 min 0 W/m 0,0 km/h (0 Bft) 97,83 %
27.08.2023 04:22 14,3 C 12,8 C 9,4 C 96 % 1009,9 hPa 0,0 l/m 0 min 0 min 0 W/m 0,0 km/h (0 Bft) 100,00 %
27.08.2023 04:24 14,3 C 12,8 C 9,4 C 96 % 1009,8 hPa 0,0 l/m 0 min 0 min 0 W/m 0,0 km/h (0 Bft) 100,00 %
27.08.2023 04:26 14,3 C 12,8 C 9,4 C 96 % 1009,8 hPa 0,0 l/m 0 min 0 min 0 W/m 0,0 km/h (0 Bft) 95,74 %
27.08.2023 04:28 14,3 C 12,8 C 9,4 C 96 % 1009,7 hPa 0,0 l/m 0 min 0 min 0 W/m 0,0 km/h (0 Bft) 100,00 %
27.08.2023 04:30 14,3 C 12,8 C 9,4 C 96 % 1009,7 hPa 0,0 l/m 0 min 0 min 0 W/m 0,0 km/h (0 Bft) 95,74 %
27.08.2023 04:32 14,2 C 12,8 C 9,4 C 96 % 1009,7 hPa 0,0 l/m 0 min 0 min 0 W/m 0,0 km/h (0 Bft) 93,48 %
27.08.2023 04:34 14,2 C 12,8 C 9,4 C 96 % 1009,6 hPa 0,0 l/m 0 min 0 min 0 W/m 0,0 km/h (0 Bft) 95,74 %
27.08.2023 04:36 14,2 C 12,8 C 9,4 C 96 % 1009,5 hPa 0,0 l/m 0 min 0 min 0 W/m 0,0 km/h (0 Bft) 97,87 %
27.08.2023 04:40 14,1 C 12,8 C 9,4 C 96 % 1009,4 hPa 0,0 l/m 0 min 0 min 0 W/m 0,0 km/h (0 Bft) 96,67 %
27.08.2023 04:42 14,1 C 12,8 C 9,4 C 96 % 1009,3 hPa 0,0 l/m 0 min 0 min 0 W/m 0,0 km/h (0 Bft) 97,87 %
27.08.2023 04:44 14,1 C 12,8 C 9,4 C 96 % 1009,3 hPa 0,0 l/m 0 min 0 min 0 W/m 0,0 km/h (0 Bft) 93,62 %
27.08.2023 04:46 14,1 C 12,8 C 9,4 C 96 % 1009,3 hPa 0,0 l/m 0 min 0 min 0 W/m 0,0 km/h (0 Bft) 95,74 %
27.08.2023 04:48 14,1 C 12,8 C 9,4 C 96 % 1009,3 hPa 0,0 l/m 0 min 0 min 0 W/m 0,0 km/h (0 Bft) 97,83 %
27.08.2023 04:50 14,1 C 12,8 C 9,4 C 96 % 1009,3 hPa 0,0 l/m 0 min 0 min 0 W/m 0,0 km/h (0 Bft) 95,74 %
27.08.2023 04:52 14,1 C 12,8 C 9,4 C 96 % 1009,2 hPa 0,0 l/m 0 min 0 min 0 W/m 0,0 km/h (0 Bft) 97,87 %
27.08.2023 04:54 14,1 C 12,8 C 9,4 C 96 % 1009,2 hPa 0,0 l/m 0 min 0 min 0 W/m 0,0 km/h (0 Bft) 97,87 %
27.08.2023 04:56 14,1 C 12,8 C 9,4 C 96 % 1009,1 hPa 0,0 l/m 0 min 0 min 0 W/m 0,0 km/h (0 Bft) 93,62 %
27.08.2023 04:58 14,1 C 12,8 C 9,4 C 96 % 1009,2 hPa 0,0 l/m 0 min 0 min 0 W/m 0,0 km/h (0 Bft) 97,87 %
27.08.2023 05:00 14,1 C 12,8 C 9,4 C 96 % 1009,2 hPa 0,0 l/m 0 min 0 min 0 W/m 0,0 km/h (0 Bft) 100,00 %
27.08.2023 05:02 14,0 C 12,8 C 9,4 C 96 % 1009,1 hPa 0,0 l/m 0 min 0 min 0 W/m 0,0 km/h (0 Bft) 95,74 %
27.08.2023 05:04 14,0 C 12,8 C 9,4 C 96 % 1009,1 hPa 0,0 l/m 0 min 0 min 0 W/m 0,0 km/h (0 Bft) 100,00 %
27.08.2023 05:06 14,0 C 12,8 C 9,4 C 96 % 1009,2 hPa 0,0 l/m 0 min 0 min 0 W/m 0,0 km/h (0 Bft) 98,31 %
27.08.2023 05:08 13,9 C 12,8 C 9,4 C 96 % 1009,3 hPa 0,0 l/m 0 min 0 min 0 W/m 0,0 km/h (0 Bft) 94,29 %
27.08.2023 05:10 13,9 C 12,8 C 9,4 C 96 % 1009,3 hPa 0,0 l/m 0 min 0 min 0 W/m 0,0 km/h (0 Bft) 100,00 %
27.08.2023 05:12 13,9 C 12,8 C 9,4 C 96 % 1009,3 hPa 0,0 l/m 0 min 0 min 0 W/m 0,0 km/h (0 Bft) 100,00 %
27.08.2023 05:14 13,9 C 12,8 C 9,4 C 96 % 1009,3 hPa 0,0 l/m 0 min 0 min 0 W/m 0,0 km/h (0 Bft) 97,87 %
27.08.2023 05:16 13,9 C 12,8 C 9,4 C 96 % 1009,3 hPa 0,0 l/m 0 min 0 min 0 W/m 0,0 km/h (0 Bft) 97,87 %
27.08.2023 05:18 13,9 C 12,8 C 9,4 C 96 % 1009,2 hPa 0,0 l/m 0 min 0 min 0 W/m 0,0 km/h (0 Bft) 100,00 %
27.08.2023 05:20 13,9 C 12,8 C 9,4 C 96 % 1009,2 hPa 0,0 l/m 0 min 0 min 0 W/m 0,0 km/h (0 Bft) 97,87 %
27.08.2023 05:22 13,9 C 12,8 C 9,4 C 96 % 1009,2 hPa 0,0 l/m 0 min 0 min 0 W/m 0,0 km/h (0 Bft) 97,87 %
27.08.2023 05:24 13,9 C 12,8 C 9,4 C 96 % 1009,2 hPa 0,0 l/m 0 min 0 min 0 W/m 0,0 km/h (0 Bft) 97,87 %
27.08.2023 05:26 13,9 C 12,8 C 9,4 C 96 % 1009,2 hPa 0,0 l/m 0 min 0 min 0 W/m 0,0 km/h (0 Bft) 97,83 %
27.08.2023 05:28 13,9 C 12,8 C 9,4 C 96 % 1009,2 hPa 0,0 l/m 0 min 0 min 0 W/m 0,0 km/h (0 Bft) 97,87 %
27.08.2023 05:30 13,9 C 12,8 C 9,4 C 96 % 1009,1 hPa 0,0 l/m 0 min 0 min 0 W/m 0,0 km/h (0 Bft) 95,74 %
27.08.2023 05:32 13,8 C 12,8 C 9,4 C 96 % 1009,1 hPa 0,0 l/m 0 min 0 min 0 W/m 0,0 km/h (0 Bft) 95,74 %
27.08.2023 05:34 13,8 C 12,8 C 9,4 C 97 % 1009,1 hPa 0,0 l/m 0 min 0 min 0 W/m 0,0 km/h (0 Bft) 97,87 %
27.08.2023 05:36 13,8 C 12,8 C 9,4 C 97 % 1009,1 hPa 0,0 l/m 0 min 0 min 0 W/m 0,0 km/h (0 Bft) 95,74 %
27.08.2023 05:38 13,8 C 12,8 C 9,4 C 97 % 1009,1 hPa 0,0 l/m 0 min 0 min 0 W/m 0,0 km/h (0 Bft) 97,87 %
27.08.2023 05:40 13,8 C 12,8 C 9,4 C 97 % 1009,1 hPa 0,0 l/m 0 min 0 min 0 W/m 0,0 km/h (0 Bft) 97,83 %
27.08.2023 05:42 13,8 C 12,8 C 9,4 C 97 % 1009,1 hPa 0,0 l/m 0 min 0 min 0 W/m 0,0 km/h (0 Bft) 97,87 %
27.08.2023 05:44 13,7 C 12,8 C 9,4 C 97 % 1009,2 hPa 0,0 l/m 0 min 0 min 0 W/m 0,0 km/h (0 Bft) 95,74 %
27.08.2023 05:46 13,7 C 12,8 C 9,4 C 97 % 1009,2 hPa 0,0 l/m 0 min 0 min 0 W/m 0,0 km/h (0 Bft) 97,87 %
27.08.2023 05:48 13,7 C 12,8 C 9,4 C 97 % 1009,3 hPa 0,0 l/m 0 min 0 min 0 W/m 0,0 km/h (0 Bft) 97,87 %
27.08.2023 05:50 13,7 C 12,8 C 9,4 C 97 % 1009,2 hPa 0,0 l/m 0 min 0 min 0 W/m 0,0 km/h (0 Bft) 97,87 %
27.08.2023 05:52 13,7 C 12,8 C 9,4 C 97 % 1009,3 hPa 0,0 l/m 0 min 0 min 0 W/m 0,0 km/h (0 Bft) 97,83 %
27.08.2023 05:54 13,7 C 12,8 C 9,4 C 97 % 1009,3 hPa 0,0 l/m 0 min 0 min 0 W/m 0,0 km/h (0 Bft) 100,00 %
27.08.2023 05:56 13,7 C 12,8 C 9,4 C 97 % 1009,3 hPa 0,0 l/m 0 min 0 min 0 W/m 0,0 km/h (0 Bft) 97,87 %
27.08.2023 05:58 13,7 C 13,3 C 9,4 C 97 % 1009,3 hPa 0,0 l/m 0 min 0 min 0 W/m 0,0 km/h (0 Bft) 93,62 %
27.08.2023 06:00 13,7 C 13,3 C 9,4 C 97 % 1009,3 hPa 0,0 l/m 0 min 0 min 0 W/m 3,2 km/h (1 Bft) 97,87 %
27.08.2023 06:02 13,7 C 13,3 C 9,4 C 97 % 1009,3 hPa 0,0 l/m 0 min 0 min 0 W/m 3,2 km/h (1 Bft) 97,87 %
27.08.2023 06:04 13,7 C 13,3 C 9,4 C 97 % 1009,3 hPa 0,0 l/m 0 min 0 min 0 W/m 0,0 km/h (0 Bft) 98,00 %
27.08.2023 06:08 13,7 C 13,3 C 9,4 C 97 % 1009,3 hPa 0,0 l/m 0 min 0 min 0 W/m 3,2 km/h (1 Bft) 97,87 %
27.08.2023 06:10 13,7 C 13,3 C 9,4 C 97 % 1009,4 hPa 0,0 l/m 0 min 0 min 0 W/m 3,2 km/h (1 Bft) 97,87 %
27.08.2023 06:12 13,7 C 13,3 C 9,4 C 97 % 1009,3 hPa 0,0 l/m 0 min 0 min 0 W/m 3,2 km/h (1 Bft) 95,74 %
27.08.2023 06:14 13,7 C 13,3 C 9,4 C 97 % 1009,3 hPa 0,0 l/m 0 min 0 min 0 W/m 0,0 km/h (0 Bft) 93,62 %
27.08.2023 06:16 13,8 C 13,3 C 9,4 C 97 % 1009,4 hPa 0,0 l/m 0 min 0 min 0 W/m 6,4 km/h (2 Bft) 95,65 %
27.08.2023 06:18 13,8 C 13,3 C 9,4 C 97 % 1009,4 hPa 0,0 l/m 0 min 0 min 0 W/m 3,2 km/h (1 Bft) 95,74 %
27.08.2023 06:20 13,8 C 13,3 C 9,4 C 97 % 1009,4 hPa 0,0 l/m 0 min 0 min 0 W/m 3,2 km/h (1 Bft) 95,74 %
27.08.2023 06:22 13,8 C 13,3 C 10,0 C 97 % 1009,4 hPa 0,2 l/m 0 min 2 min 0 W/m 3,2 km/h (1 Bft) 95,74 %
27.08.2023 06:24 13,7 C 13,3 C 10,0 C 97 % 1009,4 hPa 0,0 l/m 0 min 2 min 0 W/m 3,2 km/h (1 Bft) 95,74 %
27.08.2023 06:26 13,8 C 13,3 C 10,0 C 97 % 1009,3 hPa 0,0 l/m 0 min 2 min 0 W/m 3,2 km/h (1 Bft) 95,74 %
27.08.2023 06:28 13,8 C 13,3 C 10,0 C 97 % 1009,3 hPa 0,0 l/m 0 min 2 min 0 W/m 0,0 km/h (0 Bft) 95,74 %
27.08.2023 06:30 13,8 C 13,3 C 10,0 C 97 % 1009,2 hPa 0,0 l/m 0 min 2 min 0 W/m 0,0 km/h (0 Bft) 95,65 %
27.08.2023 06:32 13,8 C 13,3 C 10,0 C 97 % 1009,3 hPa 0,0 l/m 0 min 0 min 0 W/m 0,0 km/h (0 Bft) 93,62 %
27.08.2023 06:34 13,9 C 13,3 C 10,0 C 97 % 1009,3 hPa 0,2 l/m 0 min 2 min 0 W/m 0,0 km/h (0 Bft) 95,74 %
27.08.2023 06:36 13,9 C 13,3 C 10,0 C 97 % 1009,3 hPa 0,0 l/m 0 min 0 min 0 W/m 0,0 km/h (0 Bft) 95,74 %
27.08.2023 06:38 13,9 C 13,3 C 10,0 C 97 % 1009,4 hPa 0,0 l/m 0 min 2 min 0 W/m 0,0 km/h (0 Bft) 95,74 %
27.08.2023 06:40 13,9 C 13,3 C 10,0 C 97 % 1009,4 hPa 0,0 l/m 0 min 0 min 0 W/m 3,2 km/h (1 Bft) 95,74 %
27.08.2023 06:42 13,9 C 13,3 C 10,0 C 97 % 1009,4 hPa 0,0 l/m 0 min 2 min 0 W/m 0,0 km/h (0 Bft) 91,30 %
27.08.2023 06:44 13,9 C 13,3 C 10,0 C 97 % 1009,3 hPa 0,0 l/m 0 min 2 min 0 W/m 6,4 km/h (2 Bft) 97,87 %
27.08.2023 06:46 13,9 C 13,3 C 10,0 C 97 % 1009,4 hPa 0,0 l/m 0 min 2 min 0 W/m 3,2 km/h (1 Bft) 97,87 %
27.08.2023 06:48 13,9 C 13,3 C 10,0 C 97 % 1009,4 hPa 0,0 l/m 0 min 0 min 0 W/m 0,0 km/h (0 Bft) 97,87 %
27.08.2023 06:50 13,9 C 13,3 C 10,0 C 97 % 1009,4 hPa 0,0 l/m 0 min 0 min 0 W/m 3,2 km/h (1 Bft) 100,00 %
27.08.2023 06:52 13,9 C 13,3 C 10,0 C 97 % 1009,4 hPa 0,0 l/m 0 min 0 min 0 W/m 0,0 km/h (0 Bft) 100,00 %
27.08.2023 06:54 13,9 C 13,3 C 10,0 C 97 % 1009,5 hPa 0,0 l/m 0 min 0 min 0 W/m 3,2 km/h (1 Bft) 100,00 %
27.08.2023 06:56 13,9 C 13,3 C 10,0 C 97 % 1009,5 hPa 0,0 l/m 0 min 0 min 0 W/m 0,0 km/h (0 Bft) 97,83 %
27.08.2023 06:58 13,9 C 13,3 C 10,0 C 97 % 1009,4 hPa 0,0 l/m 0 min 0 min 0 W/m 0,0 km/h (0 Bft) 100,00 %
27.08.2023 07:00 13,9 C 13,3 C 10,0 C 97 % 1009,3 hPa 0,0 l/m 0 min 0 min 0 W/m 0,0 km/h (0 Bft) 97,87 %
27.08.2023 07:02 13,9 C 13,3 C 10,0 C 97 % 1009,5 hPa 0,0 l/m 0 min 2 min 0 W/m 0,0 km/h (0 Bft) 93,62 %
27.08.2023 07:04 13,9 C 13,3 C 10,0 C 97 % 1009,5 hPa 0,0 l/m 0 min 2 min 4 W/m 0,0 km/h (0 Bft) 96,08 %
27.08.2023 07:06 13,9 C 13,3 C 10,0 C 97 % 1009,5 hPa 0,0 l/m 0 min 0 min 6 W/m 0,0 km/h (0 Bft) 100,00 %
27.08.2023 07:08 13,9 C 13,3 C 10,0 C 97 % 1009,5 hPa 0,0 l/m 0 min 0 min 7 W/m 0,0 km/h (0 Bft) 100,00 %
27.08.2023 07:10 13,9 C 13,3 C 10,0 C 97 % 1009,5 hPa 0,0 l/m 0 min 0 min 7 W/m 6,4 km/h (2 Bft) 97,87 %
27.08.2023 07:12 14,0 C 13,3 C 10,0 C 97 % 1009,5 hPa 0,0 l/m 0 min 0 min 7 W/m 3,2 km/h (1 Bft) 100,00 %
27.08.2023 07:14 14,1 C 13,3 C 10,0 C 97 % 1009,5 hPa 0,0 l/m 0 min 0 min 8 W/m 0,0 km/h (0 Bft) 100,00 %
27.08.2023 07:16 14,1 C 13,3 C 10,0 C 97 % 1009,5 hPa 0,0 l/m 0 min 0 min 9 W/m 0,0 km/h (0 Bft) 97,87 %
27.08.2023 07:18 14,1 C 13,3 C 10,0 C 97 % 1009,5 hPa 0,0 l/m 0 min 0 min 9 W/m 0,0 km/h (0 Bft) 97,87 %
27.08.2023 07:20 14,1 C 13,3 C 10,0 C 97 % 1009,6 hPa 0,0 l/m 0 min 0 min 9 W/m 3,2 km/h (1 Bft) 100,00 %
27.08.2023 07:22 14,1 C 13,9 C 10,0 C 97 % 1009,6 hPa 0,0 l/m 0 min 0 min 10 W/m 0,0 km/h (0 Bft) 97,87 %
27.08.2023 07:24 14,2 C 13,3 C 10,0 C 97 % 1009,6 hPa 0,0 l/m 0 min 0 min 13 W/m 0,0 km/h (0 Bft) 97,87 %
27.08.2023 07:26 14,2 C 13,9 C 10,0 C 97 % 1009,7 hPa 0,0 l/m 0 min 0 min 14 W/m 0,0 km/h (0 Bft) 97,87 %
27.08.2023 07:28 14,2 C 13,9 C 10,0 C 97 % 1009,8 hPa 0,0 l/m 0 min 0 min 14 W/m 0,0 km/h (0 Bft) 100,00 %
27.08.2023 07:30 14,2 C 13,9 C 10,0 C 97 % 1009,7 hPa 0,0 l/m 0 min 0 min 14 W/m 0,0 km/h (0 Bft) 100,00 %
27.08.2023 07:32 14,2 C 13,9 C 10,0 C 97 % 1009,7 hPa 0,0 l/m 0 min 0 min 15 W/m 0,0 km/h (0 Bft) 100,00 %
27.08.2023 07:34 14,2 C 13,9 C 10,0 C 97 % 1009,6 hPa 0,0 l/m 0 min 0 min 14 W/m 0,0 km/h (0 Bft) 97,83 %
27.08.2023 07:36 14,3 C 13,9 C 10,0 C 97 % 1009,5 hPa 0,0 l/m 0 min 0 min 14 W/m 0,0 km/h (0 Bft) 100,00 %
27.08.2023 07:38 14,3 C 13,9 C 10,0 C 97 % 1009,5 hPa 0,0 l/m 0 min 0 min 13 W/m 0,0 km/h (0 Bft) 97,87 %
27.08.2023 07:40 14,3 C 13,9 C 10,0 C 97 % 1009,5 hPa 0,0 l/m 0 min 0 min 15 W/m 0,0 km/h (0 Bft) 95,74 %
27.08.2023 07:42 14,3 C 13,9 C 10,0 C 97 % 1009,5 hPa 0,0 l/m 0 min 0 min 21 W/m 0,0 km/h (0 Bft) 97,87 %
27.08.2023 07:44 14,3 C 13,9 C 10,0 C 97 % 1009,5 hPa 0,0 l/m 0 min 0 min 24 W/m 0,0 km/h (0 Bft) 97,87 %
27.08.2023 07:46 14,3 C 13,9 C 10,6 C 97 % 1009,4 hPa 0,0 l/m 0 min 0 min 22 W/m 0,0 km/h (0 Bft) 97,83 %
27.08.2023 07:48 14,3 C 13,9 C 10,6 C 97 % 1009,4 hPa 0,0 l/m 0 min 0 min 23 W/m 0,0 km/h (0 Bft) 94,44 %
27.08.2023 07:50 14,3 C 13,9 C 10,0 C 97 % 1009,4 hPa 0,0 l/m 0 min 0 min 28 W/m 3,2 km/h (1 Bft) 97,83 %
27.08.2023 07:52 14,3 C 13,9 C 10,6 C 97 % 1009,4 hPa 0,0 l/m 0 min 0 min 29 W/m 0,0 km/h (0 Bft) 97,87 %
27.08.2023 07:54 14,3 C 13,9 C 10,0 C 97 % 1009,5 hPa 0,0 l/m 0 min 0 min 27 W/m 0,0 km/h (0 Bft) 98,31 %
27.08.2023 07:56 14,3 C 13,9 C 10,6 C 97 % 1009,5 hPa 0,0 l/m 0 min 0 min 28 W/m 0,0 km/h (0 Bft) 97,14 %
27.08.2023 07:58 14,3 C 13,9 C 10,6 C 97 % 1009,7 hPa 0,0 l/m 0 min 0 min 28 W/m 0,0 km/h (0 Bft) 98,31 %
27.08.2023 08:00 14,4 C 13,9 C 10,6 C 97 % 1009,6 hPa 0,0 l/m 0 min 0 min 26 W/m 0,0 km/h (0 Bft) 94,29 %
27.08.2023 08:02 14,4 C 13,9 C 10,6 C 97 % 1009,7 hPa 0,0 l/m 0 min 0 min 23 W/m 0,0 km/h (0 Bft) 93,62 %
27.08.2023 08:04 14,4 C 13,9 C 10,6 C 97 % 1009,7 hPa 0,0 l/m 0 min 0 min 21 W/m 0,0 km/h (0 Bft) 95,92 %
27.08.2023 08:06 14,4 C 13,9 C 10,6 C 97 % 1009,6 hPa 0,0 l/m 0 min 0 min 27 W/m 0,0 km/h (0 Bft) 95,00 %
27.08.2023 08:08 14,5 C 13,9 C 10,0 C 97 % 1009,6 hPa 0,0 l/m 0 min 0 min 25 W/m 0,0 km/h (0 Bft) 97,14 %
27.08.2023 08:10 14,5 C 13,9 C 10,0 C 97 % 1009,7 hPa 0,0 l/m 0 min 0 min 17 W/m 0,0 km/h (0 Bft) 95,74 %
27.08.2023 08:12 14,5 C 13,9 C 10,0 C 97 % 1009,6 hPa 0,0 l/m 0 min 0 min 14 W/m 0,0 km/h (0 Bft) 95,74 %
27.08.2023 08:14 14,5 C 13,9 C 10,0 C 97 % 1009,6 hPa 0,0 l/m 0 min 0 min 11 W/m 0,0 km/h (0 Bft) 93,48 %
27.08.2023 08:16 14,5 C 13,9 C 10,6 C 97 % 1009,7 hPa 0,0 l/m 0 min 0 min 12 W/m 0,0 km/h (0 Bft) 94,44 %
27.08.2023 08:18 14,5 C 13,9 C 10,6 C 98 % 1009,8 hPa 0,0 l/m 0 min 0 min 17 W/m 0,0 km/h (0 Bft) 92,00 %
27.08.2023 08:20 14,5 C 13,9 C 10,6 C 97 % 1009,8 hPa 0,0 l/m 0 min 0 min 21 W/m 0,0 km/h (0 Bft) 97,30 %
27.08.2023 08:22 14,5 C 13,9 C 10,6 C 97 % 1009,8 hPa 0,0 l/m 0 min 0 min 25 W/m 0,0 km/h (0 Bft) 97,87 %
27.08.2023 08:24 14,5 C 13,9 C 10,6 C 97 % 1009,7 hPa 0,0 l/m 0 min 2 min 33 W/m 0,0 km/h (0 Bft) 97,87 %
27.08.2023 08:26 14,5 C 13,9 C 10,6 C 98 % 1009,7 hPa 0,0 l/m 0 min 2 min 51 W/m 0,0 km/h (0 Bft) 97,87 %
27.08.2023 08:28 14,5 C 14,4 C 10,6 C 98 % 1009,7 hPa 0,0 l/m 0 min 0 min 83 W/m 0,0 km/h (0 Bft) 98,11 %
27.08.2023 08:30 14,6 C 14,4 C 10,6 C 98 % 1009,7 hPa 0,0 l/m 0 min 0 min 105 W/m 0,0 km/h (0 Bft) 97,87 %
27.08.2023 08:32 14,6 C 14,4 C 10,6 C 98 % 1009,6 hPa 0,0 l/m 0 min 0 min 112 W/m 0,0 km/h (0 Bft) 100,00 %
27.08.2023 08:34 14,6 C 14,4 C 10,6 C 98 % 1009,6 hPa 0,0 l/m 0 min 0 min 106 W/m 0,0 km/h (0 Bft) 97,87 %
27.08.2023 08:36 14,6 C 15,0 C 10,6 C 98 % 1009,6 hPa 0,0 l/m 0 min 0 min 108 W/m 0,0 km/h (0 Bft) 100,00 %
27.08.2023 08:38 14,7 C 15,0 C 10,6 C 98 % 1009,6 hPa 0,0 l/m 0 min 0 min 104 W/m 0,0 km/h (0 Bft) 100,00 %
27.08.2023 08:40 14,8 C 15,0 C 11,1 C 98 % 1009,5 hPa 0,0 l/m 0 min 0 min 111 W/m 0,0 km/h (0 Bft) 100,00 %
27.08.2023 08:42 14,8 C 15,0 C 10,6 C 98 % 1009,6 hPa 0,0 l/m 0 min 0 min 125 W/m 0,0 km/h (0 Bft) 100,00 %
27.08.2023 08:44 14,8 C 15,0 C 10,6 C 98 % 1009,7 hPa 0,0 l/m 0 min 0 min 132 W/m 6,4 km/h (2 Bft) 100,00 %
27.08.2023 08:46 14,8 C 15,0 C 11,1 C 98 % 1009,7 hPa 0,0 l/m 0 min 2 min 125 W/m 0,0 km/h (0 Bft) 100,00 %
27.08.2023 08:48 14,8 C 15,0 C 10,6 C 98 % 1009,7 hPa 0,0 l/m 0 min 0 min 128 W/m 0,0 km/h (0 Bft) 100,00 %
27.08.2023 08:50 14,9 C 15,0 C 10,6 C 98 % 1009,8 hPa 0,0 l/m 0 min 0 min 127 W/m 0,0 km/h (0 Bft) 100,00 %
27.08.2023 08:52 14,9 C 15,0 C 11,1 C 98 % 1009,9 hPa 0,0 l/m 0 min 0 min 110 W/m 0,0 km/h (0 Bft) 100,00 %
27.08.2023 08:54 14,9 C 15,0 C 11,1 C 98 % 1009,9 hPa 0,0 l/m 0 min 0 min 104 W/m 6,4 km/h (2 Bft) 100,00 %
27.08.2023 08:56 14,9 C 15,0 C 11,1 C 98 % 1009,9 hPa 0,0 l/m 0 min 0 min 96 W/m 3,2 km/h (1 Bft) 100,00 %
27.08.2023 08:58 14,9 C 15,0 C 11,1 C 98 % 1009,9 hPa 0,0 l/m 0 min 0 min 90 W/m 3,2 km/h (1 Bft) 100,00 %
27.08.2023 09:00 15,0 C 15,0 C 11,1 C 98 % 1009,9 hPa 0,0 l/m 0 min 0 min 94 W/m 3,2 km/h (1 Bft) 100,00 %
27.08.2023 09:02 15,0 C 15,0 C 11,1 C 98 % 1009,8 hPa 0,0 l/m 0 min 0 min 99 W/m 3,2 km/h (1 Bft) 97,87 %
27.08.2023 09:04 15,1 C 15,0 C 11,1 C 98 % 1009,9 hPa 0,0 l/m 0 min 0 min 110 W/m 9,7 km/h (2 Bft) 97,62 %
27.08.2023 09:06 15,1 C 15,0 C 11,1 C 98 % 1009,8 hPa 0,0 l/m 0 min 0 min 129 W/m 3,2 km/h (1 Bft) 96,23 %
27.08.2023 09:08 15,1 C 15,6 C 11,1 C 98 % 1009,9 hPa 0,0 l/m 0 min 0 min 130 W/m 3,2 km/h (1 Bft) 97,87 %
27.08.2023 09:10 15,1 C 15,6 C 11,1 C 97 % 1009,9 hPa 0,0 l/m 0 min 0 min 132 W/m 3,2 km/h (1 Bft) 97,87 %
27.08.2023 09:12 15,1 C 16,7 C 11,1 C 97 % 1009,9 hPa 0,0 l/m 2 min 0 min 324 W/m 12,9 km/h (3 Bft) 97,87 %
27.08.2023 09:14 15,2 C 17,2 C 11,1 C 97 % 1009,9 hPa 0,0 l/m 2 min 0 min 309 W/m 9,7 km/h (2 Bft) 97,87 %
27.08.2023 09:16 15,2 C 16,7 C 11,1 C 97 % 1009,9 hPa 0,0 l/m 2 min 0 min 320 W/m 3,2 km/h (1 Bft) 97,87 %
27.08.2023 09:18 15,2 C 16,7 C 11,1 C 97 % 1009,9 hPa 0,0 l/m 0 min 0 min 194 W/m 6,4 km/h (2 Bft) 97,83 %
27.08.2023 09:20 15,2 C 17,2 C 11,1 C 98 % 1009,9 hPa 0,0 l/m 2 min 0 min 308 W/m 3,2 km/h (1 Bft) 97,87 %
27.08.2023 09:22 15,2 C 17,2 C 11,1 C 97 % 1009,9 hPa 0,0 l/m 2 min 0 min 346 W/m 6,4 km/h (2 Bft) 95,74 %
27.08.2023 09:24 15,3 C 17,2 C 11,1 C 97 % 1009,8 hPa 0,0 l/m 2 min 0 min 270 W/m 9,7 km/h (2 Bft) 95,74 %
27.08.2023 09:26 15,3 C 17,2 C 11,1 C 97 % 1009,9 hPa 0,0 l/m 2 min 0 min 387 W/m 9,7 km/h (2 Bft) 97,87 %
27.08.2023 09:28 15,3 C 17,2 C 11,1 C 97 % 1009,9 hPa 0,0 l/m 2 min 0 min 413 W/m 3,2 km/h (1 Bft) 97,87 %
27.08.2023 09:30 15,3 C 17,2 C 11,1 C 97 % 1009,9 hPa 0,0 l/m 2 min 0 min 394 W/m 0,0 km/h (0 Bft) 97,83 %
27.08.2023 09:32 15,4 C 17,2 C 11,1 C 97 % 1009,8 hPa 0,0 l/m 2 min 0 min 306 W/m 0,0 km/h (0 Bft) 97,87 %
27.08.2023 09:34 15,4 C 16,7 C 11,1 C 97 % 1009,8 hPa 0,0 l/m 2 min 0 min 273 W/m 3,2 km/h (1 Bft) 97,87 %
27.08.2023 09:36 15,4 C 16,7 C 11,1 C 97 % 1009,8 hPa 0,0 l/m 0 min 0 min 171 W/m 6,4 km/h (2 Bft) 97,87 %
27.08.2023 09:38 15,5 C 16,7 C 11,1 C 97 % 1009,8 hPa 0,0 l/m 0 min 0 min 146 W/m 0,0 km/h (0 Bft) 97,87 %
27.08.2023 09:40 15,5 C 16,7 C 11,1 C 97 % 1009,8 hPa 0,0 l/m 0 min 0 min 142 W/m 0,0 km/h (0 Bft) 95,74 %
27.08.2023 09:42 15,6 C 16,7 C 11,1 C 97 % 1009,8 hPa 0,0 l/m 0 min 0 min 130 W/m 0,0 km/h (0 Bft) 97,87 %
27.08.2023 09:44 15,6 C 16,7 C 11,1 C 97 % 1009,7 hPa 0,0 l/m 0 min 0 min 124 W/m 0,0 km/h (0 Bft) 97,83 %
27.08.2023 09:46 15,7 C 16,7 C 11,1 C 96 % 1009,7 hPa 0,0 l/m 0 min 0 min 132 W/m 9,7 km/h (2 Bft) 97,87 %
27.08.2023 09:48 15,7 C 16,7 C 11,7 C 96 % 1009,8 hPa 0,0 l/m 0 min 0 min 149 W/m 6,4 km/h (2 Bft) 97,87 %
27.08.2023 09:50 15,8 C 16,7 C 11,7 C 96 % 1009,8 hPa 0,0 l/m 0 min 0 min 190 W/m 12,9 km/h (3 Bft) 97,87 %
27.08.2023 09:52 15,8 C 16,7 C 11,1 C 96 % 1009,7 hPa 0,0 l/m 2 min 0 min 251 W/m 16,1 km/h (3 Bft) 97,87 %
27.08.2023 09:54 15,9 C 17,2 C 11,7 C 96 % 1009,7 hPa 0,0 l/m 2 min 0 min 276 W/m 6,4 km/h (2 Bft) 95,74 %
27.08.2023 09:56 16,0 C 17,2 C 11,7 C 95 % 1009,7 hPa 0,0 l/m 2 min 0 min 271 W/m 6,4 km/h (2 Bft) 97,83 %
27.08.2023 09:58 16,1 C 17,2 C 11,7 C 95 % 1009,8 hPa 0,0 l/m 2 min 0 min 273 W/m 12,9 km/h (3 Bft) 97,87 %
27.08.2023 10:00 16,2 C 17,2 C 11,7 C 94 % 1009,7 hPa 0,0 l/m 2 min 0 min 290 W/m 6,4 km/h (2 Bft) 95,74 %
27.08.2023 10:02 16,2 C 17,8 C 12,2 C 94 % 1009,7 hPa 0,0 l/m 2 min 0 min 310 W/m 3,2 km/h (1 Bft) 97,87 %
27.08.2023 10:04 16,3 C 17,8 C 12,2 C 94 % 1009,8 hPa 0,0 l/m 2 min 0 min 309 W/m 9,7 km/h (2 Bft) 97,73 %
27.08.2023 10:06 16,4 C 17,8 C 11,7 C 93 % 1009,9 hPa 0,0 l/m 2 min 0 min 295 W/m 12,9 km/h (3 Bft) 93,62 %
27.08.2023 10:08 16,5 C 17,8 C 11,7 C 92 % 1009,9 hPa 0,0 l/m 2 min 0 min 278 W/m 9,7 km/h (2 Bft) 97,87 %
27.08.2023 10:10 16,6 C 17,8 C 12,2 C 92 % 1010,0 hPa 0,0 l/m 2 min 0 min 268 W/m 6,4 km/h (2 Bft) 94,29 %
27.08.2023 10:12 16,6 C 17,8 C 12,2 C 91 % 1009,9 hPa 0,0 l/m 2 min 0 min 260 W/m 9,7 km/h (2 Bft) 96,49 %
27.08.2023 10:14 16,7 C 17,2 C 12,2 C 90 % 1009,9 hPa 0,0 l/m 0 min 0 min 254 W/m 6,4 km/h (2 Bft) 97,87 %
27.08.2023 10:16 16,7 C 17,2 C 12,8 C 90 % 1010,0 hPa 0,0 l/m 0 min 0 min 246 W/m 12,9 km/h (3 Bft) 97,87 %
27.08.2023 10:18 16,7 C 17,8 C 12,8 C 89 % 1010,0 hPa 0,0 l/m 0 min 0 min 242 W/m 6,4 km/h (2 Bft) 97,87 %
27.08.2023 10:20 16,8 C 17,2 C 13,3 C 89 % 1010,0 hPa 0,0 l/m 0 min 0 min 242 W/m 12,9 km/h (3 Bft) 95,74 %
27.08.2023 10:22 16,8 C 17,2 C 13,3 C 88 % 1010,0 hPa 0,0 l/m 0 min 0 min 250 W/m 9,7 km/h (2 Bft) 97,87 %
27.08.2023 10:24 16,8 C 17,2 C 13,3 C 88 % 1010,0 hPa 0,0 l/m 0 min 0 min 254 W/m 6,4 km/h (2 Bft) 97,83 %
27.08.2023 10:26 16,9 C 17,8 C 13,9 C 88 % 1010,0 hPa 0,0 l/m 0 min 0 min 256 W/m 6,4 km/h (2 Bft) 100,00 %
27.08.2023 10:28 17,0 C 17,8 C 13,9 C 88 % 1010,0 hPa 0,0 l/m 0 min 0 min 258 W/m 12,9 km/h (3 Bft) 95,74 %
27.08.2023 10:30 17,0 C 17,8 C 13,9 C 87 % 1010,0 hPa 0,0 l/m 0 min 0 min 273 W/m 16,1 km/h (3 Bft) 97,87 %
27.08.2023 10:32 17,1 C 17,8 C 13,9 C 87 % 1009,9 hPa 0,0 l/m 0 min 0 min 272 W/m 12,9 km/h (3 Bft) 97,87 %
27.08.2023 10:34 17,1 C 17,8 C 13,9 C 87 % 1010,0 hPa 0,0 l/m 2 min 0 min 297 W/m 16,1 km/h (3 Bft) 95,74 %
27.08.2023 10:36 17,2 C 17,8 C 13,9 C 87 % 1009,9 hPa 0,0 l/m 2 min 0 min 291 W/m 12,9 km/h (3 Bft) 97,87 %
27.08.2023 10:38 17,2 C 17,8 C 13,9 C 86 % 1010,0 hPa 0,0 l/m 2 min 0 min 325 W/m 12,9 km/h (3 Bft) 97,83 %
27.08.2023 10:40 17,2 C 17,8 C 13,9 C 86 % 1010,0 hPa 0,0 l/m 2 min 0 min 299 W/m 16,1 km/h (3 Bft) 97,87 %
27.08.2023 10:42 17,3 C 17,8 C 13,9 C 86 % 1009,9 hPa 0,0 l/m 0 min 0 min 281 W/m 6,4 km/h (2 Bft) 97,87 %
27.08.2023 10:44 17,3 C 18,3 C 13,9 C 86 % 1010,0 hPa 0,0 l/m 2 min 0 min 300 W/m 9,7 km/h (2 Bft) 97,87 %
27.08.2023 10:46 17,4 C 18,3 C 14,4 C 86 % 1009,9 hPa 0,0 l/m 2 min 0 min 294 W/m 3,2 km/h (1 Bft) 97,87 %
27.08.2023 10:48 17,5 C 18,3 C 14,4 C 86 % 1009,9 hPa 0,0 l/m 2 min 0 min 299 W/m 6,4 km/h (2 Bft) 97,87 %
27.08.2023 10:50 17,6 C 18,9 C 14,4 C 86 % 1009,9 hPa 0,0 l/m 0 min 0 min 284 W/m 6,4 km/h (2 Bft) 97,83 %
27.08.2023 10:52 17,6 C 18,9 C 14,4 C 86 % 1010,0 hPa 0,0 l/m 0 min 0 min 270 W/m 16,1 km/h (3 Bft) 95,74 %
27.08.2023 10:54 17,7 C 18,3 C 14,4 C 85 % 1009,9 hPa 0,0 l/m 0 min 0 min 242 W/m 12,9 km/h (3 Bft) 97,87 %
27.08.2023 10:56 17,7 C 18,3 C 14,4 C 85 % 1010,0 hPa 0,0 l/m 0 min 0 min 234 W/m 9,7 km/h (2 Bft) 97,87 %
27.08.2023 10:58 17,8 C 18,3 C 14,4 C 85 % 1010,0 hPa 0,0 l/m 0 min 0 min 229 W/m 12,9 km/h (3 Bft) 93,62 %
27.08.2023 11:00 17,8 C 18,3 C 14,4 C 84 % 1010,0 hPa 0,0 l/m 0 min 0 min 237 W/m 9,7 km/h (2 Bft) 97,87 %
27.08.2023 11:02 17,8 C 18,3 C 14,4 C 83 % 1009,9 hPa 0,0 l/m 0 min 0 min 258 W/m 12,9 km/h (3 Bft) 95,65 %
27.08.2023 11:04 17,8 C 18,9 C 14,4 C 83 % 1009,9 hPa 0,0 l/m 2 min 0 min 345 W/m 6,4 km/h (2 Bft) 97,87 %
27.08.2023 11:06 17,9 C 18,9 C 14,4 C 83 % 1009,9 hPa 0,0 l/m 2 min 0 min 359 W/m 16,1 km/h (3 Bft) 95,74 %
27.08.2023 11:08 17,9 C 18,9 C 14,4 C 82 % 1009,9 hPa 0,0 l/m 2 min 0 min 367 W/m 12,9 km/h (3 Bft) 97,87 %
27.08.2023 11:10 18,0 C 18,9 C 14,4 C 82 % 1009,9 hPa 0,0 l/m 2 min 0 min 370 W/m 12,9 km/h (3 Bft) 97,87 %
27.08.2023 11:12 18,1 C 19,4 C 15,0 C 82 % 1009,9 hPa 0,0 l/m 2 min 0 min 508 W/m 12,9 km/h (3 Bft) 97,87 %
27.08.2023 11:14 18,1 C 19,4 C 15,0 C 82 % 1009,9 hPa 0,0 l/m 2 min 0 min 340 W/m 6,4 km/h (2 Bft) 97,87 %
27.08.2023 11:16 18,2 C 19,4 C 15,0 C 82 % 1010,0 hPa 0,0 l/m 0 min 0 min 300 W/m 6,4 km/h (2 Bft) 97,83 %
27.08.2023 11:18 18,2 C 19,4 C 15,0 C 82 % 1010,0 hPa 0,0 l/m 2 min 0 min 329 W/m 6,4 km/h (2 Bft) 100,00 %
27.08.2023 11:20 18,3 C 19,4 C 15,0 C 82 % 1010,0 hPa 0,0 l/m 2 min 0 min 411 W/m 9,7 km/h (2 Bft) 100,00 %
27.08.2023 11:22 18,3 C 20,0 C 15,6 C 82 % 1009,9 hPa 0,0 l/m 2 min 0 min 427 W/m 9,7 km/h (2 Bft) 100,00 %
27.08.2023 11:24 18,4 C 19,4 C 15,0 C 81 % 1009,9 hPa 0,0 l/m 2 min 0 min 403 W/m 16,1 km/h (3 Bft) 100,00 %
27.08.2023 11:26 18,4 C 20,0 C 15,6 C 82 % 1009,9 hPa 0,0 l/m 2 min 0 min 331 W/m 6,4 km/h (2 Bft) 100,00 %
27.08.2023 11:28 18,5 C 20,0 C 15,6 C 82 % 1009,8 hPa 0,0 l/m 2 min 0 min 476 W/m 12,9 km/h (3 Bft) 100,00 %
27.08.2023 11:30 18,5 C 20,0 C 15,6 C 81 % 1009,9 hPa 0,0 l/m 0 min 0 min 267 W/m 19,3 km/h (3 Bft) 100,00 %
27.08.2023 11:32 18,5 C 20,0 C 15,0 C 80 % 1009,9 hPa 0,0 l/m 0 min 0 min 307 W/m 19,3 km/h (3 Bft) 97,87 %
27.08.2023 11:34 18,6 C 19,4 C 15,0 C 80 % 1009,9 hPa 0,0 l/m 0 min 0 min 226 W/m 19,3 km/h (3 Bft) 100,00 %
27.08.2023 11:36 18,6 C 19,4 C 15,0 C 80 % 1009,8 hPa 0,0 l/m 0 min 0 min 232 W/m 12,9 km/h (3 Bft) 100,00 %
27.08.2023 11:38 18,6 C 20,0 C 15,0 C 80 % 1009,8 hPa 0,0 l/m 2 min 0 min 361 W/m 12,9 km/h (3 Bft) 100,00 %
27.08.2023 11:40 18,7 C 20,0 C 15,6 C 80 % 1009,8 hPa 0,0 l/m 2 min 0 min 406 W/m 16,1 km/h (3 Bft) 100,00 %
27.08.2023 11:42 18,8 C 20,6 C 16,1 C 80 % 1009,8 hPa 0,0 l/m 2 min 0 min 406 W/m 22,5 km/h (4 Bft) 100,00 %
27.08.2023 11:44 18,9 C 20,6 C 16,1 C 79 % 1009,7 hPa 0,0 l/m 2 min 0 min 406 W/m 12,9 km/h (3 Bft) 100,00 %
27.08.2023 11:46 19,1 C 21,1 C 17,2 C 80 % 1009,7 hPa 0,0 l/m 2 min 0 min 804 W/m 6,4 km/h (2 Bft) 95,74 %
27.08.2023 11:48 19,1 C 20,6 C 16,7 C 80 % 1009,7 hPa 0,0 l/m 2 min 0 min 727 W/m 6,4 km/h (2 Bft) 97,87 %
27.08.2023 11:50 19,2 C 21,1 C 17,2 C 79 % 1009,7 hPa 0,0 l/m 2 min 0 min 491 W/m 12,9 km/h (3 Bft) 95,74 %
27.08.2023 11:52 19,3 C 21,7 C 17,8 C 79 % 1009,7 hPa 0,0 l/m 2 min 0 min 895 W/m 6,4 km/h (2 Bft) 95,74 %
27.08.2023 11:54 19,4 C 22,8 C 18,3 C 79 % 1009,6 hPa 0,0 l/m 2 min 0 min 855 W/m 12,9 km/h (3 Bft) 93,48 %
27.08.2023 11:56 19,4 C 22,2 C 17,8 C 77 % 1009,6 hPa 0,0 l/m 2 min 0 min 833 W/m 19,3 km/h (3 Bft) 95,74 %
27.08.2023 11:58 19,4 C 22,8 C 17,8 C 77 % 1009,5 hPa 0,0 l/m 2 min 0 min 833 W/m 16,1 km/h (3 Bft) 95,74 %
27.08.2023 12:00 19,4 C 22,8 C 17,8 C 77 % 1009,5 hPa 0,0 l/m 2 min 0 min 833 W/m 16,1 km/h (3 Bft) 95,74 %
27.08.2023 12:02 19,4 C 23,3 C 17,8 C 76 % 1009,5 hPa 0,0 l/m 0 min 0 min 315 W/m 12,9 km/h (3 Bft) 95,74 %
27.08.2023 12:04 19,4 C 25,0 C 18,9 C 76 % 1009,4 hPa 0,0 l/m 2 min 0 min 813 W/m 12,9 km/h (3 Bft) 93,02 %
27.08.2023 12:08 19,4 C 22,8 C 17,8 C 75 % 1009,4 hPa 0,0 l/m 4 min 0 min 448 W/m 22,5 km/h (4 Bft) 95,05 %
27.08.2023 12:10 19,3 C 23,9 C 17,8 C 75 % 1009,4 hPa 0,0 l/m 2 min 0 min 677 W/m 16,1 km/h (3 Bft) 94,29 %
27.08.2023 12:12 19,4 C 25,6 C 18,9 C 75 % 1009,4 hPa 0,0 l/m 2 min 0 min 825 W/m 22,5 km/h (4 Bft) 95,74 %
27.08.2023 12:14 19,5 C 26,1 C 19,4 C 75 % 1009,5 hPa 0,0 l/m 2 min 0 min 840 W/m 19,3 km/h (3 Bft) 95,74 %
27.08.2023 12:16 19,6 C 23,3 C 18,9 C 75 % 1009,3 hPa 0,0 l/m 2 min 0 min 769 W/m 25,7 km/h (4 Bft) 95,74 %
27.08.2023 12:18 19,6 C 25,0 C 18,3 C 75 % 1009,4 hPa 0,0 l/m 0 min 0 min 324 W/m 16,1 km/h (3 Bft) 95,74 %
27.08.2023 12:20 19,7 C 26,1 C 17,8 C 75 % 1009,4 hPa 0,0 l/m 2 min 0 min 905 W/m 19,3 km/h (3 Bft) 93,62 %
27.08.2023 12:22 19,8 C 27,2 C 17,8 C 75 % 1009,2 hPa 0,0 l/m 2 min 0 min 869 W/m 16,1 km/h (3 Bft) 93,48 %
27.08.2023 12:24 20,0 C 27,8 C 17,8 C 74 % 1009,2 hPa 0,0 l/m 2 min 0 min 810 W/m 32,2 km/h (5 Bft) 95,74 %
27.08.2023 12:26 20,1 C 27,2 C 17,8 C 74 % 1009,2 hPa 0,0 l/m 2 min 0 min 796 W/m 16,1 km/h (3 Bft) 97,87 %
27.08.2023 12:28 20,2 C 26,1 C 17,2 C 73 % 1009,2 hPa 0,0 l/m 2 min 0 min 801 W/m 19,3 km/h (3 Bft) 100,00 %
27.08.2023 12:30 20,3 C 25,6 C 17,2 C 73 % 1009,2 hPa 0,0 l/m 2 min 0 min 815 W/m 19,3 km/h (3 Bft) 100,00 %
27.08.2023 12:32 20,4 C 24,4 C 17,2 C 73 % 1009,2 hPa 0,0 l/m 2 min 0 min 836 W/m 22,5 km/h (4 Bft) 100,00 %
27.08.2023 12:34 20,6 C 23,3 C 17,2 C 73 % 1009,3 hPa 0,0 l/m 2 min 0 min 837 W/m 22,5 km/h (4 Bft) 100,00 %
27.08.2023 12:36 20,6 C 22,2 C 16,7 C 72 % 1009,4 hPa 0,0 l/m 2 min 0 min 837 W/m 16,1 km/h (3 Bft) 97,87 %
27.08.2023 12:38 20,5 C 21,1 C 16,1 C 72 % 1009,2 hPa 0,0 l/m 0 min 0 min 225 W/m 9,7 km/h (2 Bft) 100,00 %
27.08.2023 12:40 20,4 C 20,6 C 16,1 C 72 % 1009,2 hPa 0,0 l/m 0 min 0 min 126 W/m 16,1 km/h (3 Bft) 100,00 %
27.08.2023 12:42 20,3 C 20,0 C 16,1 C 72 % 1009,2 hPa 0,0 l/m 0 min 0 min 137 W/m 16,1 km/h (3 Bft) 100,00 %
27.08.2023 12:44 20,3 C 20,6 C 16,1 C 72 % 1009,3 hPa 0,0 l/m 2 min 0 min 719 W/m 12,9 km/h (3 Bft) 100,00 %
27.08.2023 12:46 20,3 C 20,6 C 16,1 C 72 % 1009,3 hPa 0,0 l/m 2 min 0 min 702 W/m 22,5 km/h (4 Bft) 100,00 %
27.08.2023 12:48 20,2 C 20,0 C 16,1 C 71 % 1009,2 hPa 0,0 l/m 0 min 0 min 212 W/m 22,5 km/h (4 Bft) 97,83 %
27.08.2023 12:50 20,2 C 20,0 C 16,1 C 72 % 1009,2 hPa 0,0 l/m 0 min 0 min 261 W/m 12,9 km/h (3 Bft) 100,00 %
27.08.2023 12:52 20,2 C 20,6 C 16,1 C 72 % 1009,2 hPa 0,0 l/m 0 min 0 min 296 W/m 12,9 km/h (3 Bft) 100,00 %
27.08.2023 12:54 20,3 C 21,1 C 16,1 C 74 % 1009,2 hPa 0,0 l/m 0 min 0 min 294 W/m 6,4 km/h (2 Bft) 100,00 %
27.08.2023 12:56 20,3 C 21,1 C 16,7 C 73 % 1009,2 hPa 0,0 l/m 2 min 0 min 391 W/m 19,3 km/h (3 Bft) 100,00 %
27.08.2023 12:58 20,4 C 21,1 C 16,7 C 73 % 1009,2 hPa 0,0 l/m 2 min 0 min 503 W/m 16,1 km/h (3 Bft) 97,87 %
27.08.2023 13:00 20,6 C 21,1 C 16,7 C 73 % 1009,1 hPa 0,0 l/m 2 min 0 min 754 W/m 16,1 km/h (3 Bft) 100,00 %
27.08.2023 13:02 20,6 C 21,1 C 16,7 C 72 % 1009,1 hPa 0,0 l/m 2 min 0 min 550 W/m 16,1 km/h (3 Bft) 100,00 %
27.08.2023 13:04 20,6 C 21,1 C 16,7 C 72 % 1009,0 hPa 0,0 l/m 0 min 0 min 237 W/m 16,1 km/h (3 Bft) 100,00 %
27.08.2023 13:06 20,7 C 21,1 C 16,7 C 72 % 1009,0 hPa 0,0 l/m 0 min 0 min 294 W/m 9,7 km/h (2 Bft) 100,00 %
27.08.2023 13:08 20,8 C 21,1 C 16,7 C 72 % 1009,0 hPa 0,0 l/m 0 min 0 min 364 W/m 12,9 km/h (3 Bft) 100,00 %
27.08.2023 13:10 20,8 C 21,1 C 16,7 C 71 % 1009,1 hPa 0,0 l/m 0 min 0 min 264 W/m 12,9 km/h (3 Bft) 100,00 %
27.08.2023 13:12 20,9 C 21,1 C 16,7 C 72 % 1009,0 hPa 0,0 l/m 0 min 0 min 169 W/m 16,1 km/h (3 Bft) 100,00 %
27.08.2023 13:14 20,9 C 21,1 C 16,7 C 72 % 1009,0 hPa 0,0 l/m 0 min 0 min 154 W/m 12,9 km/h (3 Bft) 100,00 %
27.08.2023 13:16 20,9 C 20,6 C 16,7 C 72 % 1009,0 hPa 0,0 l/m 0 min 0 min 200 W/m 9,7 km/h (2 Bft) 100,00 %
27.08.2023 13:18 20,9 C 20,6 C 16,7 C 72 % 1009,1 hPa 0,0 l/m 0 min 0 min 269 W/m 12,9 km/h (3 Bft) 100,00 %
27.08.2023 13:20 20,8 C 20,6 C 16,1 C 70 % 1009,0 hPa 0,0 l/m 0 min 0 min 309 W/m 12,9 km/h (3 Bft) 100,00 %
27.08.2023 13:22 20,8 C 20,6 C 16,7 C 71 % 1009,0 hPa 0,0 l/m 0 min 0 min 234 W/m 9,7 km/h (2 Bft) 100,00 %
27.08.2023 13:24 20,8 C 20,6 C 16,7 C 71 % 1009,1 hPa 0,0 l/m 0 min 0 min 361 W/m 9,7 km/h (2 Bft) 97,87 %
27.08.2023 13:26 20,8 C 20,6 C 16,7 C 71 % 1009,1 hPa 0,0 l/m 0 min 0 min 294 W/m 12,9 km/h (3 Bft) 97,83 %
27.08.2023 13:28 20,7 C 20,6 C 16,1 C 70 % 1009,1 hPa 0,0 l/m 0 min 0 min 256 W/m 12,9 km/h (3 Bft) 100,00 %
27.08.2023 13:30 20,7 C 20,6 C 16,7 C 71 % 1009,0 hPa 0,0 l/m 0 min 0 min 264 W/m 6,4 km/h (2 Bft) 100,00 %
27.08.2023 13:32 20,7 C 21,1 C 16,7 C 72 % 1009,0 hPa 0,0 l/m 2 min 0 min 382 W/m 19,3 km/h (3 Bft) 100,00 %
27.08.2023 13:34 20,8 C 21,1 C 16,7 C 71 % 1009,1 hPa 0,0 l/m 2 min 0 min 482 W/m 16,1 km/h (3 Bft) 100,00 %
27.08.2023 13:36 20,8 C 20,6 C 16,7 C 71 % 1009,1 hPa 0,0 l/m 0 min 0 min 250 W/m 9,7 km/h (2 Bft) 100,00 %
27.08.2023 13:38 20,7 C 20,6 C 16,7 C 71 % 1009,2 hPa 0,0 l/m 0 min 0 min 219 W/m 12,9 km/h (3 Bft) 100,00 %
27.08.2023 13:40 20,7 C 20,6 C 16,1 C 71 % 1009,1 hPa 0,0 l/m 0 min 0 min 305 W/m 16,1 km/h (3 Bft) 100,00 %
27.08.2023 13:42 20,6 C 20,6 C 16,1 C 71 % 1009,1 hPa 0,0 l/m 2 min 0 min 406 W/m 12,9 km/h (3 Bft) 100,00 %
27.08.2023 13:44 20,6 C 21,1 C 16,7 C 72 % 1009,1 hPa 0,0 l/m 2 min 0 min 604 W/m 12,9 km/h (3 Bft) 95,74 %
27.08.2023 13:46 20,6 C 21,1 C 16,7 C 72 % 1009,0 hPa 0,0 l/m 2 min 0 min 765 W/m 9,7 km/h (2 Bft) 97,87 %
27.08.2023 13:48 20,7 C 21,1 C 16,7 C 70 % 1009,1 hPa 0,0 l/m 0 min 0 min 322 W/m 3,2 km/h (1 Bft) 97,87 %
27.08.2023 13:50 20,7 C 21,7 C 16,7 C 70 % 1009,1 hPa 0,0 l/m 2 min 0 min 664 W/m 9,7 km/h (2 Bft) 97,87 %
27.08.2023 13:52 20,8 C 22,2 C 16,7 C 71 % 1008,9 hPa 0,0 l/m 2 min 0 min 872 W/m 12,9 km/h (3 Bft) 95,65 %
27.08.2023 13:54 20,9 C 23,3 C 16,7 C 69 % 1009,0 hPa 0,0 l/m 2 min 0 min 914 W/m 22,5 km/h (4 Bft) 97,87 %
27.08.2023 13:56 21,1 C 24,4 C 17,2 C 70 % 1008,9 hPa 0,0 l/m 2 min 0 min 914 W/m 6,4 km/h (2 Bft) 93,62 %
27.08.2023 13:58 21,2 C 22,8 C 16,7 C 67 % 1009,0 hPa 0,0 l/m 2 min 0 min 710 W/m 19,3 km/h (3 Bft) 97,87 %
27.08.2023 14:00 21,1 C 22,2 C 16,7 C 65 % 1009,0 hPa 0,0 l/m 0 min 0 min 185 W/m 25,7 km/h (4 Bft) 97,87 %
27.08.2023 14:02 21,0 C 22,2 C 16,7 C 63 % 1009,1 hPa 0,0 l/m 0 min 0 min 234 W/m 19,3 km/h (3 Bft) 97,83 %
27.08.2023 14:04 20,9 C 22,8 C 16,1 C 64 % 1009,1 hPa 0,0 l/m 2 min 0 min 606 W/m 22,5 km/h (4 Bft) 97,62 %
27.08.2023 14:06 20,8 C 22,2 C 16,1 C 65 % 1009,0 hPa 0,0 l/m 0 min 0 min 231 W/m 16,1 km/h (3 Bft) 95,45 %
27.08.2023 14:08 20,8 C 22,8 C 16,1 C 66 % 1009,0 hPa 0,0 l/m 0 min 0 min 211 W/m 12,9 km/h (3 Bft) 97,14 %
27.08.2023 14:10 20,8 C 24,4 C 16,1 C 67 % 1009,0 hPa 0,0 l/m 2 min 0 min 410 W/m 16,1 km/h (3 Bft) 93,62 %
27.08.2023 14:12 20,9 C 26,1 C 16,7 C 67 % 1009,0 hPa 0,0 l/m 2 min 0 min 844 W/m 12,9 km/h (3 Bft) 93,62 %
27.08.2023 14:14 21,1 C 26,7 C 16,7 C 66 % 1009,0 hPa 0,0 l/m 2 min 0 min 808 W/m 16,1 km/h (3 Bft) 93,62 %
27.08.2023 14:16 21,1 C 26,7 C 16,7 C 66 % 1009,0 hPa 0,0 l/m 2 min 0 min 798 W/m 16,1 km/h (3 Bft) 91,49 %
27.08.2023 14:18 21,2 C 27,2 C 16,7 C 66 % 1009,0 hPa 0,0 l/m 2 min 0 min 792 W/m 12,9 km/h (3 Bft) 91,30 %
27.08.2023 14:20 21,3 C 27,2 C 16,7 C 66 % 1008,9 hPa 0,0 l/m 2 min 0 min 791 W/m 12,9 km/h (3 Bft) 93,62 %
27.08.2023 14:22 21,4 C 27,2 C 16,7 C 67 % 1008,9 hPa 0,0 l/m 2 min 0 min 792 W/m 12,9 km/h (3 Bft) 95,74 %
27.08.2023 14:24 21,6 C 27,2 C 16,7 C 66 % 1008,9 hPa 0,0 l/m 2 min 0 min 799 W/m 16,1 km/h (3 Bft) 95,74 %
27.08.2023 14:26 21,6 C 26,1 C 16,7 C 64 % 1008,8 hPa 0,0 l/m 2 min 0 min 821 W/m 25,7 km/h (4 Bft) 91,49 %
27.08.2023 14:28 21,6 C 26,1 C 16,7 C 65 % 1008,9 hPa 0,0 l/m 2 min 0 min 834 W/m 12,9 km/h (3 Bft) 93,62 %
27.08.2023 14:30 21,7 C 26,7 C 16,7 C 66 % 1008,8 hPa 0,0 l/m 2 min 0 min 837 W/m 25,7 km/h (4 Bft) 93,48 %
27.08.2023 14:32 21,6 C 24,4 C 16,7 C 65 % 1008,8 hPa 0,0 l/m 2 min 0 min 415 W/m 19,3 km/h (3 Bft) 91,49 %
27.08.2023 14:34 21,6 C 25,0 C 16,7 C 67 % 1008,8 hPa 0,0 l/m 0 min 0 min 176 W/m 19,3 km/h (3 Bft) 95,74 %
27.08.2023 14:36 21,6 C 25,6 C 16,7 C 67 % 1008,8 hPa 0,0 l/m 2 min 0 min 792 W/m 19,3 km/h (3 Bft) 91,49 %
27.08.2023 14:38 21,7 C 25,6 C 16,7 C 67 % 1008,8 hPa 0,0 l/m 2 min 0 min 830 W/m 12,9 km/h (3 Bft) 95,74 %
27.08.2023 14:40 21,8 C 26,1 C 17,2 C 68 % 1008,7 hPa 0,0 l/m 2 min 0 min 807 W/m 6,4 km/h (2 Bft) 95,74 %
27.08.2023 14:42 21,9 C 25,6 C 17,2 C 67 % 1008,8 hPa 0,0 l/m 2 min 0 min 802 W/m 12,9 km/h (3 Bft) 95,74 %
27.08.2023 14:44 22,0 C 25,0 C 17,2 C 66 % 1008,8 hPa 0,0 l/m 2 min 0 min 844 W/m 12,9 km/h (3 Bft) 95,65 %
27.08.2023 14:46 22,1 C 23,9 C 17,2 C 65 % 1008,8 hPa 0,0 l/m 2 min 0 min 638 W/m 16,1 km/h (3 Bft) 93,62 %
27.08.2023 14:48 22,0 C 22,8 C 17,2 C 64 % 1008,8 hPa 0,0 l/m 0 min 0 min 271 W/m 16,1 km/h (3 Bft) 95,74 %
27.08.2023 14:50 21,8 C 21,7 C 16,7 C 63 % 1008,8 hPa 0,0 l/m 0 min 0 min 194 W/m 16,1 km/h (3 Bft) 95,74 %
27.08.2023 14:52 21,7 C 21,1 C 16,7 C 64 % 1008,9 hPa 0,0 l/m 0 min 0 min 126 W/m 9,7 km/h (2 Bft) 95,74 %
27.08.2023 14:54 21,6 C 20,6 C 16,7 C 64 % 1009,0 hPa 0,0 l/m 0 min 0 min 88 W/m 12,9 km/h (3 Bft) 93,62 %
27.08.2023 14:56 21,3 C 20,0 C 16,1 C 63 % 1009,0 hPa 0,0 l/m 0 min 0 min 65 W/m 16,1 km/h (3 Bft) 95,65 %
27.08.2023 14:58 21,0 C 16,7 C 13,3 C 71 % 1009,3 hPa 0,4 l/m 0 min 2 min 35 W/m 29,0 km/h (5 Bft) 95,74 %
27.08.2023 15:00 20,1 C 15,0 C 11,7 C 74 % 1009,7 hPa 0,8 l/m 0 min 2 min 25 W/m 25,7 km/h (4 Bft) 97,87 %
27.08.2023 15:02 19,1 C 14,4 C 11,1 C 76 % 1010,0 hPa 1,0 l/m 0 min 2 min 30 W/m 38,6 km/h (5 Bft) 97,87 %
27.08.2023 15:04 18,2 C 13,3 C 10,6 C 79 % 1010,1 hPa 0,8 l/m 0 min 2 min 44 W/m 32,2 km/h (5 Bft) 100,00 %
27.08.2023 15:06 17,3 C 13,3 C 10,6 C 81 % 1009,8 hPa 0,4 l/m 0 min 2 min 75 W/m 22,5 km/h (4 Bft) 100,00 %
27.08.2023 15:08 17,0 C 13,3 C 10,6 C 83 % 1009,7 hPa 0,2 l/m 0 min 2 min 123 W/m 12,9 km/h (3 Bft) 98,11 %
27.08.2023 15:10 16,7 C 13,3 C 10,6 C 84 % 1009,7 hPa 0,0 l/m 0 min 2 min 171 W/m 9,7 km/h (2 Bft) 97,83 %
27.08.2023 15:12 16,4 C 13,9 C 10,6 C 85 % 1009,6 hPa 0,0 l/m 0 min 0 min 206 W/m 9,7 km/h (2 Bft) 100,00 %
27.08.2023 15:14 16,3 C 13,9 C 10,6 C 86 % 1009,7 hPa 0,0 l/m 0 min 0 min 205 W/m 6,4 km/h (2 Bft) 100,00 %
27.08.2023 15:16 16,3 C 14,4 C 10,6 C 87 % 1009,7 hPa 0,0 l/m 0 min 0 min 208 W/m 6,4 km/h (2 Bft) 100,00 %
27.08.2023 15:18 16,2 C 15,0 C 11,1 C 88 % 1009,6 hPa 0,0 l/m 0 min 0 min 251 W/m 0,0 km/h (0 Bft) 97,87 %
27.08.2023 15:20 16,3 C 15,0 C 11,1 C 89 % 1009,6 hPa 0,0 l/m 0 min 0 min 306 W/m 0,0 km/h (0 Bft) 100,00 %
27.08.2023 15:22 16,2 C 15,6 C 11,1 C 89 % 1009,6 hPa 0,0 l/m 2 min 0 min 390 W/m 0,0 km/h (0 Bft) 100,00 %
27.08.2023 15:24 16,3 C 16,1 C 11,1 C 89 % 1009,6 hPa 0,0 l/m 2 min 0 min 489 W/m 0,0 km/h (0 Bft) 100,00 %
27.08.2023 15:26 16,3 C 16,7 C 11,7 C 90 % 1009,6 hPa 0,0 l/m 2 min 0 min 460 W/m 0,0 km/h (0 Bft) 97,87 %
27.08.2023 15:28 16,4 C 17,2 C 11,7 C 90 % 1009,6 hPa 0,0 l/m 2 min 0 min 611 W/m 0,0 km/h (0 Bft) 100,00 %
27.08.2023 15:30 16,5 C 17,8 C 11,7 C 90 % 1009,5 hPa 0,0 l/m 2 min 0 min 746 W/m 0,0 km/h (0 Bft) 100,00 %
27.08.2023 15:32 16,7 C 17,8 C 11,7 C 90 % 1009,5 hPa 0,0 l/m 2 min 0 min 702 W/m 3,2 km/h (1 Bft) 100,00 %
27.08.2023 15:34 16,8 C 17,2 C 11,7 C 90 % 1009,5 hPa 0,0 l/m 2 min 0 min 687 W/m 0,0 km/h (0 Bft) 100,00 %
27.08.2023 15:36 17,0 C 17,8 C 11,7 C 90 % 1009,5 hPa 0,0 l/m 2 min 0 min 678 W/m 0,0 km/h (0 Bft) 100,00 %
27.08.2023 15:38 17,2 C 17,8 C 11,7 C 90 % 1009,5 hPa 0,0 l/m 2 min 0 min 671 W/m 0,0 km/h (0 Bft) 100,00 %
27.08.2023 15:40 17,3 C 17,8 C 11,7 C 89 % 1009,5 hPa 0,0 l/m 2 min 0 min 670 W/m 0,0 km/h (0 Bft) 100,00 %
27.08.2023 15:42 17,5 C 18,3 C 11,7 C 88 % 1009,5 hPa 0,0 l/m 2 min 0 min 669 W/m 0,0 km/h (0 Bft) 100,00 %
27.08.2023 15:44 17,7 C 18,9 C 11,7 C 88 % 1009,5 hPa 0,0 l/m 2 min 0 min 668 W/m 3,2 km/h (1 Bft) 100,00 %
27.08.2023 15:46 17,8 C 19,4 C 12,2 C 87 % 1009,5 hPa 0,0 l/m 2 min 0 min 671 W/m 12,9 km/h (3 Bft) 100,00 %
27.08.2023 15:48 18,0 C 19,4 C 11,7 C 85 % 1009,6 hPa 0,0 l/m 2 min 0 min 678 W/m 12,9 km/h (3 Bft) 97,87 %
27.08.2023 15:50 18,1 C 19,4 C 11,7 C 83 % 1009,6 hPa 0,0 l/m 2 min 0 min 676 W/m 9,7 km/h (2 Bft) 100,00 %
27.08.2023 15:52 18,2 C 18,9 C 11,7 C 82 % 1009,5 hPa 0,0 l/m 2 min 0 min 422 W/m 6,4 km/h (2 Bft) 100,00 %
27.08.2023 15:54 18,3 C 18,9 C 11,7 C 82 % 1009,6 hPa 0,0 l/m 0 min 0 min 224 W/m 6,4 km/h (2 Bft) 100,00 %
27.08.2023 15:56 18,3 C 18,3 C 11,1 C 81 % 1009,6 hPa 0,0 l/m 0 min 0 min 241 W/m 12,9 km/h (3 Bft) 100,00 %
27.08.2023 15:58 18,3 C 18,3 C 11,1 C 81 % 1009,7 hPa 0,0 l/m 0 min 0 min 180 W/m 6,4 km/h (2 Bft) 100,00 %
27.08.2023 16:00 18,3 C 17,8 C 11,1 C 81 % 1009,7 hPa 0,0 l/m 0 min 0 min 110 W/m 19,3 km/h (3 Bft) 91,49 %
27.08.2023 16:02 18,2 C 17,2 C 11,1 C 80 % 1009,8 hPa 0,0 l/m 0 min 0 min 65 W/m 22,5 km/h (4 Bft) 97,83 %
27.08.2023 16:04 18,1 C 17,2 C 11,1 C 80 % 1009,9 hPa 0,0 l/m 0 min 0 min 54 W/m 22,5 km/h (4 Bft) 97,78 %
27.08.2023 16:06 17,8 C 16,1 C 10,6 C 80 % 1009,8 hPa 0,0 l/m 0 min 2 min 52 W/m 32,2 km/h (5 Bft) 97,87 %
27.08.2023 16:08 17,6 C 16,1 C 10,6 C 81 % 1009,8 hPa 0,0 l/m 0 min 2 min 45 W/m 16,1 km/h (3 Bft) 97,87 %
27.08.2023 16:10 17,4 C 15,6 C 10,6 C 82 % 1009,9 hPa 0,2 l/m 0 min 2 min 41 W/m 16,1 km/h (3 Bft) 97,87 %
27.08.2023 16:12 17,1 C 15,6 C 10,6 C 83 % 1010,1 hPa 0,0 l/m 0 min 2 min 39 W/m 16,1 km/h (3 Bft) 97,87 %
27.08.2023 16:14 16,9 C 15,0 C 10,0 C 84 % 1010,1 hPa 0,0 l/m 0 min 2 min 40 W/m 9,7 km/h (2 Bft) 97,83 %
27.08.2023 16:16 16,8 C 15,0 C 10,0 C 84 % 1010,1 hPa 0,0 l/m 0 min 2 min 42 W/m 12,9 km/h (3 Bft) 95,74 %
27.08.2023 16:18 16,6 C 15,0 C 10,6 C 85 % 1010,2 hPa 0,2 l/m 0 min 2 min 39 W/m 9,7 km/h (2 Bft) 97,87 %
27.08.2023 16:20 16,4 C 15,0 C 10,6 C 86 % 1010,1 hPa 0,0 l/m 0 min 2 min 37 W/m 6,4 km/h (2 Bft) 97,87 %
27.08.2023 16:22 16,4 C 15,0 C 10,6 C 87 % 1010,1 hPa 0,0 l/m 0 min 2 min 36 W/m 9,7 km/h (2 Bft) 95,74 %
27.08.2023 16:24 16,3 C 15,0 C 10,6 C 87 % 1010,2 hPa 0,2 l/m 0 min 2 min 36 W/m 6,4 km/h (2 Bft) 95,74 %
27.08.2023 16:26 16,1 C 15,0 C 10,6 C 88 % 1010,2 hPa 0,2 l/m 0 min 2 min 42 W/m 9,7 km/h (2 Bft) 97,87 %
27.08.2023 16:28 16,1 C 14,4 C 10,6 C 88 % 1010,2 hPa 0,2 l/m 0 min 2 min 53 W/m 12,9 km/h (3 Bft) 97,83 %
27.08.2023 16:30 16,0 C 14,4 C 10,6 C 89 % 1010,2 hPa 0,2 l/m 0 min 2 min 65 W/m 3,2 km/h (1 Bft) 97,87 %
27.08.2023 16:32 15,9 C 15,0 C 10,6 C 89 % 1010,1 hPa 0,0 l/m 0 min 2 min 73 W/m 6,4 km/h (2 Bft) 97,87 %
27.08.2023 16:34 15,9 C 15,0 C 10,6 C 90 % 1010,2 hPa 0,0 l/m 0 min 2 min 81 W/m 6,4 km/h (2 Bft) 100,00 %
27.08.2023 16:36 15,9 C 15,0 C 10,6 C 90 % 1010,2 hPa 0,0 l/m 0 min 2 min 97 W/m 6,4 km/h (2 Bft) 100,00 %
27.08.2023 16:38 15,9 C 15,0 C 11,1 C 90 % 1010,2 hPa 0,0 l/m 0 min 2 min 120 W/m 9,7 km/h (2 Bft) 100,00 %
27.08.2023 16:40 15,8 C 15,0 C 11,1 C 91 % 1010,2 hPa 0,0 l/m 0 min 2 min 136 W/m 9,7 km/h (2 Bft) 100,00 %
27.08.2023 16:42 15,8 C 15,0 C 11,1 C 91 % 1010,1 hPa 0,0 l/m 0 min 2 min 119 W/m 6,4 km/h (2 Bft) 100,00 %
27.08.2023 16:44 15,8 C 15,0 C 11,1 C 91 % 1010,1 hPa 0,2 l/m 0 min 2 min 108 W/m 9,7 km/h (2 Bft) 100,00 %
27.08.2023 16:46 15,8 C 15,0 C 11,1 C 91 % 1010,1 hPa 0,0 l/m 0 min 2 min 112 W/m 3,2 km/h (1 Bft) 100,00 %
27.08.2023 16:48 15,8 C 15,0 C 11,1 C 92 % 1010,0 hPa 0,0 l/m 0 min 0 min 118 W/m 3,2 km/h (1 Bft) 100,00 %
27.08.2023 16:50 15,8 C 15,0 C 11,1 C 92 % 1009,9 hPa 0,0 l/m 0 min 2 min 114 W/m 6,4 km/h (2 Bft) 100,00 %
27.08.2023 16:52 15,8 C 15,6 C 11,1 C 92 % 1009,9 hPa 0,0 l/m 0 min 0 min 128 W/m 6,4 km/h (2 Bft) 100,00 %
27.08.2023 16:54 15,8 C 15,6 C 11,1 C 92 % 1010,0 hPa 0,0 l/m 0 min 0 min 172 W/m 9,7 km/h (2 Bft) 100,00 %
27.08.2023 16:56 15,8 C 16,1 C 11,1 C 92 % 1009,9 hPa 0,0 l/m 2 min 2 min 537 W/m 9,7 km/h (2 Bft) 100,00 %
27.08.2023 16:58 15,9 C 16,7 C 11,1 C 93 % 1009,9 hPa 0,0 l/m 2 min 2 min 621 W/m 6,4 km/h (2 Bft) 97,87 %
27.08.2023 17:00 16,0 C 17,2 C 11,1 C 93 % 1009,9 hPa 0,0 l/m 2 min 0 min 599 W/m 6,4 km/h (2 Bft) 100,00 %
27.08.2023 17:02 16,1 C 17,2 C 11,7 C 93 % 1009,9 hPa 0,0 l/m 2 min 0 min 375 W/m 12,9 km/h (3 Bft) 97,87 %
27.08.2023 17:04 16,2 C 17,2 C 11,1 C 93 % 1009,9 hPa 0,0 l/m 2 min 0 min 413 W/m 6,4 km/h (2 Bft) 98,00 %
27.08.2023 17:06 16,3 C 16,7 C 11,1 C 93 % 1009,9 hPa 0,0 l/m 0 min 0 min 241 W/m 6,4 km/h (2 Bft) 95,65 %
27.08.2023 17:08 16,4 C 16,7 C 11,1 C 93 % 1009,9 hPa 0,0 l/m 0 min 0 min 197 W/m 6,4 km/h (2 Bft) 97,87 %
27.08.2023 17:10 16,4 C 16,7 C 11,1 C 93 % 1009,9 hPa 0,0 l/m 0 min 0 min 195 W/m 12,9 km/h (3 Bft) 94,74 %
27.08.2023 17:12 16,3 C 16,7 C 11,1 C 92 % 1009,9 hPa 0,0 l/m 0 min 0 min 211 W/m 12,9 km/h (3 Bft) 95,74 %
27.08.2023 17:14 16,3 C 17,2 C 11,7 C 92 % 1009,9 hPa 0,0 l/m 2 min 0 min 302 W/m 3,2 km/h (1 Bft) 93,62 %
27.08.2023 17:16 16,4 C 17,2 C 11,7 C 92 % 1009,9 hPa 0,0 l/m 2 min 0 min 255 W/m 3,2 km/h (1 Bft) 97,83 %
27.08.2023 17:18 16,4 C 17,8 C 11,7 C 92 % 1009,9 hPa 0,0 l/m 2 min 0 min 352 W/m 6,4 km/h (2 Bft) 93,62 %
27.08.2023 17:20 16,5 C 18,3 C 11,7 C 92 % 1009,8 hPa 0,0 l/m 2 min 0 min 534 W/m 16,1 km/h (3 Bft) 95,74 %
27.08.2023 17:22 16,6 C 19,4 C 11,7 C 92 % 1009,9 hPa 0,0 l/m 2 min 0 min 528 W/m 9,7 km/h (2 Bft) 95,74 %
27.08.2023 17:24 16,7 C 20,0 C 11,7 C 92 % 1009,8 hPa 0,0 l/m 2 min 0 min 489 W/m 6,4 km/h (2 Bft) 95,65 %
27.08.2023 17:26 16,8 C 20,6 C 12,2 C 92 % 1009,9 hPa 0,0 l/m 2 min 0 min 456 W/m 6,4 km/h (2 Bft) 97,87 %
27.08.2023 17:28 16,9 C 20,6 C 11,7 C 92 % 1009,9 hPa 0,2 l/m 2 min 0 min 440 W/m 12,9 km/h (3 Bft) 95,74 %
27.08.2023 17:30 17,0 C 21,1 C 11,7 C 91 % 1009,9 hPa 0,0 l/m 2 min 0 min 426 W/m 6,4 km/h (2 Bft) 95,74 %
27.08.2023 17:32 17,1 C 20,6 C 11,7 C 90 % 1009,9 hPa 0,0 l/m 2 min 0 min 418 W/m 12,9 km/h (3 Bft) 93,62 %
27.08.2023 17:34 17,2 C 20,6 C 11,7 C 90 % 1009,9 hPa 0,0 l/m 2 min 0 min 415 W/m 12,9 km/h (3 Bft) 95,74 %
27.08.2023 17:36 17,3 C 20,6 C 11,7 C 89 % 1009,9 hPa 0,0 l/m 2 min 0 min 407 W/m 9,7 km/h (2 Bft) 93,48 %
27.08.2023 17:38 17,3 C 20,0 C 11,1 C 89 % 1009,9 hPa 0,0 l/m 2 min 0 min 399 W/m 12,9 km/h (3 Bft) 95,74 %
27.08.2023 17:40 17,4 C 20,6 C 11,7 C 88 % 1009,9 hPa 0,0 l/m 2 min 0 min 396 W/m 9,7 km/h (2 Bft) 95,74 %
27.08.2023 17:42 17,4 C 21,1 C 11,7 C 88 % 1009,9 hPa 0,0 l/m 2 min 0 min 391 W/m 12,9 km/h (3 Bft) 95,74 %
27.08.2023 17:44 17,5 C 20,6 C 11,7 C 88 % 1009,9 hPa 0,0 l/m 2 min 0 min 378 W/m 9,7 km/h (2 Bft) 95,74 %
27.08.2023 17:46 17,6 C 20,6 C 11,7 C 87 % 1009,9 hPa 0,0 l/m 2 min 0 min 373 W/m 6,4 km/h (2 Bft) 95,74 %
27.08.2023 17:48 17,6 C 21,1 C 11,7 C 87 % 1009,8 hPa 0,0 l/m 2 min 0 min 374 W/m 6,4 km/h (2 Bft) 95,65 %
27.08.2023 17:50 17,7 C 21,1 C 11,7 C 87 % 1009,8 hPa 0,0 l/m 2 min 0 min 370 W/m 6,4 km/h (2 Bft) 97,87 %
27.08.2023 17:52 17,8 C 21,1 C 11,7 C 87 % 1009,8 hPa 0,0 l/m 2 min 0 min 368 W/m 12,9 km/h (3 Bft) 97,87 %
27.08.2023 17:54 17,8 C 20,6 C 11,7 C 85 % 1009,8 hPa 0,0 l/m 2 min 0 min 363 W/m 12,9 km/h (3 Bft) 97,87 %
27.08.2023 17:56 17,8 C 21,1 C 11,7 C 85 % 1009,8 hPa 0,0 l/m 2 min 0 min 354 W/m 16,1 km/h (3 Bft) 100,00 %
27.08.2023 17:58 17,8 C 21,1 C 11,7 C 84 % 1009,9 hPa 0,0 l/m 2 min 0 min 344 W/m 6,4 km/h (2 Bft) 97,87 %
27.08.2023 18:00 17,9 C 21,1 C 11,7 C 84 % 1009,9 hPa 0,0 l/m 2 min 0 min 333 W/m 9,7 km/h (2 Bft) 95,65 %
27.08.2023 18:02 17,9 C 21,1 C 11,7 C 84 % 1009,9 hPa 0,0 l/m 2 min 0 min 327 W/m 6,4 km/h (2 Bft) 95,74 %
27.08.2023 18:04 17,9 C 21,1 C 11,7 C 83 % 1010,0 hPa 0,0 l/m 2 min 0 min 317 W/m 6,4 km/h (2 Bft) 98,00 %
27.08.2023 18:08 17,9 C 20,6 C 11,7 C 83 % 1010,1 hPa 0,0 l/m 4 min 0 min 304 W/m 12,9 km/h (3 Bft) 97,89 %
27.08.2023 18:10 17,9 C 21,1 C 11,7 C 82 % 1010,0 hPa 0,0 l/m 2 min 0 min 267 W/m 6,4 km/h (2 Bft) 95,74 %
27.08.2023 18:12 17,9 C 21,1 C 11,7 C 82 % 1010,0 hPa 0,0 l/m 2 min 0 min 287 W/m 6,4 km/h (2 Bft) 97,62 %
27.08.2023 18:14 18,0 C 20,6 C 11,7 C 82 % 1010,1 hPa 0,0 l/m 2 min 0 min 283 W/m 3,2 km/h (1 Bft) 97,83 %
27.08.2023 18:16 18,1 C 21,1 C 11,7 C 83 % 1010,2 hPa 0,0 l/m 2 min 0 min 287 W/m 6,4 km/h (2 Bft) 97,87 %
27.08.2023 18:18 18,1 C 21,1 C 11,7 C 83 % 1010,2 hPa 0,0 l/m 2 min 0 min 283 W/m 6,4 km/h (2 Bft) 97,87 %
27.08.2023 18:20 18,2 C 21,1 C 11,7 C 82 % 1010,2 hPa 0,0 l/m 2 min 0 min 280 W/m 9,7 km/h (2 Bft) 97,87 %
27.08.2023 18:22 18,1 C 21,1 C 11,7 C 82 % 1010,2 hPa 0,0 l/m 2 min 0 min 277 W/m 6,4 km/h (2 Bft) 95,74 %
27.08.2023 18:24 18,2 C 21,1 C 11,7 C 82 % 1010,2 hPa 0,0 l/m 2 min 0 min 272 W/m 6,4 km/h (2 Bft) 100,00 %
27.08.2023 18:26 18,2 C 21,1 C 11,7 C 81 % 1010,1 hPa 0,0 l/m 2 min 0 min 265 W/m 16,1 km/h (3 Bft) 97,83 %
27.08.2023 18:28 18,2 C 21,1 C 12,2 C 81 % 1010,1 hPa 0,0 l/m 2 min 0 min 256 W/m 12,9 km/h (3 Bft) 97,87 %
27.08.2023 18:30 18,2 C 20,6 C 12,8 C 81 % 1010,1 hPa 0,0 l/m 2 min 0 min 243 W/m 9,7 km/h (2 Bft) 97,87 %
27.08.2023 18:32 18,2 C 20,6 C 12,8 C 81 % 1010,0 hPa 0,0 l/m 2 min 0 min 234 W/m 6,4 km/h (2 Bft) 97,87 %
27.08.2023 18:34 18,2 C 20,6 C 12,8 C 81 % 1010,2 hPa 0,0 l/m 2 min 0 min 228 W/m 16,1 km/h (3 Bft) 97,87 %
27.08.2023 18:36 18,2 C 20,6 C 12,8 C 81 % 1010,1 hPa 0,0 l/m 2 min 0 min 221 W/m 6,4 km/h (2 Bft) 95,74 %
27.08.2023 18:38 18,2 C 20,6 C 12,8 C 81 % 1010,1 hPa 0,0 l/m 2 min 0 min 219 W/m 9,7 km/h (2 Bft) 97,87 %
27.08.2023 18:40 18,2 C 20,0 C 12,8 C 80 % 1010,1 hPa 0,0 l/m 2 min 0 min 214 W/m 12,9 km/h (3 Bft) 100,00 %
27.08.2023 18:42 18,2 C 18,9 C 12,8 C 79 % 1010,2 hPa 0,0 l/m 2 min 0 min 179 W/m 16,1 km/h (3 Bft) 100,00 %
27.08.2023 18:44 18,1 C 18,3 C 12,8 C 79 % 1010,2 hPa 0,0 l/m 2 min 0 min 138 W/m 9,7 km/h (2 Bft) 100,00 %
27.08.2023 18:46 18,1 C 18,3 C 12,8 C 79 % 1010,2 hPa 0,0 l/m 0 min 0 min 108 W/m 16,1 km/h (3 Bft) 100,00 %
27.08.2023 18:48 18,1 C 17,8 C 12,8 C 80 % 1010,3 hPa 0,0 l/m 0 min 0 min 103 W/m 12,9 km/h (3 Bft) 100,00 %
27.08.2023 18:50 18,1 C 17,8 C 12,8 C 80 % 1010,3 hPa 0,0 l/m 0 min 0 min 98 W/m 6,4 km/h (2 Bft) 97,87 %
27.08.2023 18:52 18,1 C 17,8 C 12,8 C 79 % 1010,3 hPa 0,0 l/m 0 min 0 min 91 W/m 22,5 km/h (4 Bft) 97,83 %
27.08.2023 18:54 18,1 C 17,8 C 12,8 C 79 % 1010,4 hPa 0,0 l/m 0 min 0 min 84 W/m 12,9 km/h (3 Bft) 100,00 %
27.08.2023 18:56 18,0 C 17,8 C 12,8 C 79 % 1010,3 hPa 0,0 l/m 0 min 0 min 78 W/m 6,4 km/h (2 Bft) 97,87 %
27.08.2023 18:58 18,0 C 17,8 C 12,8 C 79 % 1010,3 hPa 0,0 l/m 0 min 0 min 75 W/m 6,4 km/h (2 Bft) 100,00 %
27.08.2023 19:00 17,9 C 17,2 C 12,8 C 80 % 1010,3 hPa 0,0 l/m 0 min 0 min 71 W/m 19,3 km/h (3 Bft) 100,00 %
27.08.2023 19:02 17,9 C 17,2 C 12,8 C 79 % 1010,3 hPa 0,0 l/m 0 min 0 min 70 W/m 12,9 km/h (3 Bft) 95,74 %
27.08.2023 19:04 17,9 C 17,2 C 12,8 C 80 % 1010,3 hPa 0,0 l/m 0 min 0 min 69 W/m 6,4 km/h (2 Bft) 100,00 %
27.08.2023 19:06 17,9 C 17,2 C 12,8 C 80 % 1010,3 hPa 0,0 l/m 0 min 0 min 68 W/m 12,9 km/h (3 Bft) 100,00 %
27.08.2023 19:08 17,8 C 17,2 C 12,8 C 80 % 1010,3 hPa 0,0 l/m 0 min 0 min 65 W/m 3,2 km/h (1 Bft) 94,29 %
27.08.2023 19:10 17,8 C 17,2 C 12,8 C 80 % 1010,3 hPa 0,0 l/m 0 min 0 min 63 W/m 6,4 km/h (2 Bft) 97,87 %
27.08.2023 19:12 17,8 C 17,2 C 12,8 C 80 % 1010,4 hPa 0,0 l/m 0 min 0 min 62 W/m 12,9 km/h (3 Bft) 100,00 %
27.08.2023 19:14 17,8 C 17,2 C 12,8 C 81 % 1010,3 hPa 0,0 l/m 0 min 0 min 62 W/m 12,9 km/h (3 Bft) 100,00 %
27.08.2023 19:16 17,8 C 17,2 C 12,8 C 81 % 1010,4 hPa 0,0 l/m 0 min 0 min 60 W/m 16,1 km/h (3 Bft) 100,00 %
27.08.2023 19:18 17,8 C 17,2 C 12,8 C 81 % 1010,4 hPa 0,0 l/m 0 min 0 min 58 W/m 9,7 km/h (2 Bft) 100,00 %
27.08.2023 19:20 17,7 C 17,2 C 12,8 C 81 % 1010,4 hPa 0,0 l/m 0 min 0 min 58 W/m 9,7 km/h (2 Bft) 100,00 %
27.08.2023 19:22 17,7 C 16,7 C 12,8 C 81 % 1010,5 hPa 0,0 l/m 0 min 0 min 56 W/m 9,7 km/h (2 Bft) 97,83 %
27.08.2023 19:24 17,7 C 16,7 C 12,8 C 81 % 1010,4 hPa 0,0 l/m 0 min 0 min 56 W/m 9,7 km/h (2 Bft) 100,00 %
27.08.2023 19:26 17,7 C 16,7 C 12,8 C 81 % 1010,5 hPa 0,0 l/m 0 min 0 min 55 W/m 3,2 km/h (1 Bft) 100,00 %
27.08.2023 19:28 17,7 C 16,7 C 12,8 C 82 % 1010,6 hPa 0,0 l/m 0 min 0 min 54 W/m 3,2 km/h (1 Bft) 97,87 %
27.08.2023 19:30 17,7 C 16,7 C 12,8 C 82 % 1010,6 hPa 0,0 l/m 0 min 0 min 50 W/m 6,4 km/h (2 Bft) 100,00 %
27.08.2023 19:32 17,7 C 16,7 C 12,8 C 83 % 1010,6 hPa 0,0 l/m 0 min 0 min 48 W/m 6,4 km/h (2 Bft) 100,00 %
27.08.2023 19:34 17,7 C 16,7 C 12,8 C 83 % 1010,6 hPa 0,0 l/m 0 min 0 min 46 W/m 3,2 km/h (1 Bft) 100,00 %
27.08.2023 19:36 17,6 C 16,7 C 12,8 C 83 % 1010,6 hPa 0,0 l/m 0 min 0 min 45 W/m 6,4 km/h (2 Bft) 97,87 %
27.08.2023 19:38 17,6 C 16,7 C 12,8 C 84 % 1010,6 hPa 0,0 l/m 0 min 0 min 42 W/m 6,4 km/h (2 Bft) 100,00 %
27.08.2023 19:40 17,6 C 16,7 C 12,8 C 84 % 1010,7 hPa 0,0 l/m 0 min 0 min 40 W/m 6,4 km/h (2 Bft) 100,00 %
27.08.2023 19:42 17,5 C 16,7 C 12,8 C 84 % 1010,7 hPa 0,0 l/m 0 min 0 min 39 W/m 16,1 km/h (3 Bft) 97,87 %
27.08.2023 19:44 17,5 C 16,7 C 12,8 C 85 % 1010,6 hPa 0,0 l/m 0 min 0 min 37 W/m 6,4 km/h (2 Bft) 97,87 %
27.08.2023 19:46 17,4 C 16,7 C 12,8 C 85 % 1010,7 hPa 0,0 l/m 0 min 0 min 35 W/m 6,4 km/h (2 Bft) 100,00 %
27.08.2023 19:48 17,4 C 16,7 C 12,8 C 85 % 1010,7 hPa 0,0 l/m 0 min 0 min 33 W/m 6,4 km/h (2 Bft) 95,74 %
27.08.2023 19:50 17,3 C 16,1 C 12,8 C 85 % 1010,7 hPa 0,0 l/m 0 min 0 min 32 W/m 6,4 km/h (2 Bft) 97,87 %
27.08.2023 19:52 17,3 C 16,1 C 12,8 C 85 % 1010,7 hPa 0,0 l/m 0 min 0 min 32 W/m 3,2 km/h (1 Bft) 93,62 %
27.08.2023 19:54 17,3 C 16,1 C 12,8 C 85 % 1010,8 hPa 0,0 l/m 0 min 0 min 29 W/m 3,2 km/h (1 Bft) 97,87 %
27.08.2023 19:56 17,2 C 16,1 C 12,8 C 85 % 1010,9 hPa 0,0 l/m 0 min 0 min 26 W/m 0,0 km/h (0 Bft) 95,74 %
27.08.2023 19:58 17,2 C 16,1 C 12,8 C 85 % 1010,8 hPa 0,0 l/m 0 min 0 min 23 W/m 6,4 km/h (2 Bft) 95,74 %
27.08.2023 20:00 17,2 C 16,1 C 12,8 C 85 % 1010,8 hPa 0,0 l/m 0 min 0 min 21 W/m 3,2 km/h (1 Bft) 95,65 %
27.08.2023 20:02 17,1 C 16,1 C 12,8 C 85 % 1010,8 hPa 0,0 l/m 0 min 0 min 20 W/m 0,0 km/h (0 Bft) 95,74 %
27.08.2023 20:04 17,1 C 16,1 C 12,8 C 85 % 1010,9 hPa 0,0 l/m 0 min 0 min 19 W/m 3,2 km/h (1 Bft) 96,00 %
27.08.2023 20:06 17,0 C 16,1 C 12,8 C 85 % 1010,9 hPa 0,0 l/m 0 min 0 min 17 W/m 0,0 km/h (0 Bft) 94,92 %
27.08.2023 20:08 16,9 C 15,6 C 12,8 C 85 % 1010,9 hPa 0,0 l/m 0 min 0 min 13 W/m 0,0 km/h (0 Bft) 94,29 %
27.08.2023 20:10 16,9 C 15,6 C 12,8 C 85 % 1010,9 hPa 0,0 l/m 0 min 0 min 11 W/m 3,2 km/h (1 Bft) 95,74 %
27.08.2023 20:12 16,9 C 15,6 C 12,8 C 85 % 1011,0 hPa 0,0 l/m 0 min 0 min 9 W/m 3,2 km/h (1 Bft) 93,48 %
27.08.2023 20:14 16,8 C 15,6 C 12,8 C 85 % 1011,0 hPa 0,0 l/m 0 min 0 min 7 W/m 3,2 km/h (1 Bft) 95,74 %
27.08.2023 20:16 16,8 C 15,6 C 12,8 C 85 % 1011,0 hPa 0,0 l/m 0 min 0 min 8 W/m 3,2 km/h (1 Bft) 95,74 %
27.08.2023 20:18 16,8 C 15,6 C 12,8 C 85 % 1011,0 hPa 0,0 l/m 0 min 0 min 9 W/m 0,0 km/h (0 Bft) 95,74 %
27.08.2023 20:20 16,8 C 15,6 C 12,8 C 85 % 1011,0 hPa 0,0 l/m 0 min 0 min 11 W/m 3,2 km/h (1 Bft) 95,74 %
27.08.2023 20:22 16,8 C 15,6 C 12,8 C 85 % 1011,0 hPa 0,0 l/m 0 min 0 min 11 W/m 0,0 km/h (0 Bft) 93,62 %
27.08.2023 20:24 16,8 C 15,6 C 12,8 C 86 % 1011,0 hPa 0,0 l/m 0 min 0 min 10 W/m 3,2 km/h (1 Bft) 93,48 %
27.08.2023 20:26 16,7 C 15,6 C 12,8 C 85 % 1011,0 hPa 0,0 l/m 0 min 0 min 8 W/m 3,2 km/h (1 Bft) 95,74 %
27.08.2023 20:28 16,7 C 15,6 C 12,8 C 85 % 1011,0 hPa 0,0 l/m 0 min 0 min 6 W/m 3,2 km/h (1 Bft) 97,37 %
27.08.2023 20:30 16,7 C 15,6 C 12,8 C 85 % 1011,0 hPa 0,0 l/m 0 min 0 min 5 W/m 0,0 km/h (0 Bft) 96,61 %
27.08.2023 20:32 16,6 C 15,6 C 12,8 C 85 % 1011,1 hPa 0,0 l/m 0 min 0 min 3 W/m 0,0 km/h (0 Bft) 95,74 %
27.08.2023 20:34 16,6 C 15,6 C 12,8 C 85 % 1011,0 hPa 0,0 l/m 0 min 0 min 0 W/m 3,2 km/h (1 Bft) 93,62 %
27.08.2023 20:36 16,6 C 15,0 C 12,8 C 85 % 1011,1 hPa 0,0 l/m 0 min 0 min 0 W/m 0,0 km/h (0 Bft) 97,83 %
27.08.2023 20:38 16,6 C 15,0 C 12,8 C 85 % 1011,0 hPa 0,0 l/m 0 min 0 min 0 W/m 0,0 km/h (0 Bft) 100,00 %
27.08.2023 20:40 16,5 C 15,0 C 12,8 C 85 % 1011,1 hPa 0,0 l/m 0 min 0 min 0 W/m 0,0 km/h (0 Bft) 100,00 %
27.08.2023 20:42 16,5 C 15,0 C 12,8 C 85 % 1011,1 hPa 0,0 l/m 0 min 0 min 0 W/m 0,0 km/h (0 Bft) 100,00 %
27.08.2023 20:44 16,4 C 14,4 C 12,8 C 85 % 1011,1 hPa 0,0 l/m 0 min 0 min 0 W/m 0,0 km/h (0 Bft) 100,00 %
27.08.2023 20:46 16,4 C 14,4 C 12,8 C 86 % 1011,1 hPa 0,0 l/m 0 min 0 min 0 W/m 0,0 km/h (0 Bft) 100,00 %
27.08.2023 20:48 16,4 C 14,4 C 12,8 C 86 % 1011,2 hPa 0,0 l/m 0 min 0 min 0 W/m 0,0 km/h (0 Bft) 100,00 %
27.08.2023 20:50 16,3 C 14,4 C 12,8 C 86 % 1011,2 hPa 0,0 l/m 0 min 0 min 0 W/m 0,0 km/h (0 Bft) 100,00 %
27.08.2023 20:52 16,3 C 14,4 C 12,8 C 86 % 1011,2 hPa 0,0 l/m 0 min 0 min 0 W/m 0,0 km/h (0 Bft) 97,87 %
27.08.2023 20:54 16,3 C 14,4 C 12,8 C 86 % 1011,3 hPa 0,0 l/m 0 min 0 min 0 W/m 0,0 km/h (0 Bft) 100,00 %
27.08.2023 20:56 16,2 C 14,4 C 12,8 C 86 % 1011,3 hPa 0,0 l/m 0 min 0 min 0 W/m 3,2 km/h (1 Bft) 100,00 %
27.08.2023 20:58 16,2 C 14,4 C 12,8 C 86 % 1011,3 hPa 0,0 l/m 0 min 0 min 0 W/m 0,0 km/h (0 Bft) 100,00 %
27.08.2023 21:00 16,1 C 14,4 C 12,8 C 87 % 1011,3 hPa 0,0 l/m 0 min 0 min 0 W/m 3,2 km/h (1 Bft) 100,00 %
27.08.2023 21:02 16,1 C 14,4 C 12,8 C 87 % 1011,3 hPa 0,0 l/m 0 min 0 min 0 W/m 0,0 km/h (0 Bft) 100,00 %
27.08.2023 21:04 16,1 C 14,4 C 12,8 C 87 % 1011,3 hPa 0,0 l/m 0 min 0 min 0 W/m 0,0 km/h (0 Bft) 100,00 %
27.08.2023 21:06 16,1 C 14,4 C 12,8 C 87 % 1011,3 hPa 0,0 l/m 0 min 0 min 0 W/m 3,2 km/h (1 Bft) 97,87 %
27.08.2023 21:08 16,0 C 14,4 C 12,8 C 87 % 1011,4 hPa 0,0 l/m 0 min 0 min 0 W/m 0,0 km/h (0 Bft) 100,00 %
27.08.2023 21:10 15,9 C 14,4 C 12,8 C 87 % 1011,4 hPa 0,0 l/m 0 min 0 min 0 W/m 0,0 km/h (0 Bft) 100,00 %
27.08.2023 21:12 15,9 C 14,4 C 12,8 C 87 % 1011,4 hPa 0,0 l/m 0 min 0 min 0 W/m 0,0 km/h (0 Bft) 100,00 %
27.08.2023 21:14 15,9 C 14,4 C 12,8 C 87 % 1011,4 hPa 0,0 l/m 0 min 0 min 0 W/m 3,2 km/h (1 Bft) 100,00 %
27.08.2023 21:16 15,9 C 14,4 C 12,8 C 87 % 1011,4 hPa 0,0 l/m 0 min 0 min 0 W/m 3,2 km/h (1 Bft) 95,74 %
27.08.2023 21:18 15,8 C 14,4 C 12,8 C 87 % 1011,4 hPa 0,0 l/m 0 min 0 min 0 W/m 0,0 km/h (0 Bft) 100,00 %
27.08.2023 21:20 15,8 C 14,4 C 12,8 C 87 % 1011,4 hPa 0,0 l/m 0 min 0 min 0 W/m 6,4 km/h (2 Bft) 100,00 %
27.08.2023 21:22 15,8 C 14,4 C 12,8 C 88 % 1011,4 hPa 0,0 l/m 0 min 0 min 0 W/m 0,0 km/h (0 Bft) 100,00 %
27.08.2023 21:24 15,8 C 14,4 C 12,8 C 88 % 1011,5 hPa 0,0 l/m 0 min 0 min 0 W/m 3,2 km/h (1 Bft) 100,00 %
27.08.2023 21:26 15,7 C 14,4 C 12,8 C 88 % 1011,5 hPa 0,0 l/m 0 min 0 min 0 W/m 0,0 km/h (0 Bft) 100,00 %
27.08.2023 21:28 15,7 C 14,4 C 12,8 C 88 % 1011,5 hPa 0,0 l/m 0 min 0 min 0 W/m 3,2 km/h (1 Bft) 100,00 %
27.08.2023 21:30 15,7 C 13,9 C 12,8 C 88 % 1011,5 hPa 0,0 l/m 0 min 0 min 0 W/m 0,0 km/h (0 Bft) 100,00 %
27.08.2023 21:32 15,6 C 13,9 C 12,8 C 88 % 1011,5 hPa 0,0 l/m 0 min 0 min 0 W/m 3,2 km/h (1 Bft) 98,31 %
27.08.2023 21:34 15,6 C 13,9 C 12,8 C 88 % 1011,6 hPa 0,0 l/m 0 min 0 min 0 W/m 0,0 km/h (0 Bft) 100,00 %
27.08.2023 21:36 15,6 C 13,9 C 12,8 C 88 % 1011,6 hPa 0,0 l/m 0 min 0 min 0 W/m 6,4 km/h (2 Bft) 100,00 %
27.08.2023 21:38 15,6 C 13,9 C 12,8 C 88 % 1011,6 hPa 0,0 l/m 0 min 0 min 0 W/m 0,0 km/h (0 Bft) 100,00 %
27.08.2023 21:40 15,5 C 13,9 C 12,8 C 88 % 1011,6 hPa 0,0 l/m 0 min 0 min 0 W/m 3,2 km/h (1 Bft) 100,00 %
27.08.2023 21:42 15,4 C 13,9 C 12,8 C 89 % 1011,6 hPa 0,0 l/m 0 min 0 min 0 W/m 0,0 km/h (0 Bft) 96,55 %
27.08.2023 21:44 15,4 C 13,9 C 12,8 C 89 % 1011,6 hPa 0,0 l/m 0 min 0 min 0 W/m 3,2 km/h (1 Bft) 100,00 %
27.08.2023 21:46 15,4 C 13,9 C 12,8 C 89 % 1011,6 hPa 0,0 l/m 0 min 0 min 0 W/m 3,2 km/h (1 Bft) 100,00 %
27.08.2023 21:48 15,4 C 13,9 C 12,8 C 89 % 1011,7 hPa 0,0 l/m 0 min 0 min 0 W/m 0,0 km/h (0 Bft) 100,00 %
27.08.2023 21:50 15,3 C 13,9 C 12,8 C 89 % 1011,6 hPa 0,0 l/m 0 min 0 min 0 W/m 0,0 km/h (0 Bft) 97,87 %
27.08.2023 21:52 15,3 C 13,9 C 12,8 C 89 % 1011,7 hPa 0,0 l/m 0 min 0 min 0 W/m 0,0 km/h (0 Bft) 100,00 %
27.08.2023 21:54 15,3 C 13,9 C 12,8 C 89 % 1011,7 hPa 0,0 l/m 0 min 0 min 0 W/m 0,0 km/h (0 Bft) 100,00 %
27.08.2023 21:56 15,2 C 13,9 C 12,8 C 89 % 1011,8 hPa 0,0 l/m 0 min 0 min 0 W/m 0,0 km/h (0 Bft) 97,87 %
27.08.2023 21:58 15,2 C 13,9 C 12,8 C 89 % 1011,8 hPa 0,0 l/m 0 min 0 min 0 W/m 0,0 km/h (0 Bft) 100,00 %
27.08.2023 22:00 15,2 C 13,9 C 12,8 C 89 % 1011,8 hPa 0,0 l/m 0 min 0 min 0 W/m 0,0 km/h (0 Bft) 100,00 %
27.08.2023 22:02 15,2 C 13,9 C 12,8 C 89 % 1011,9 hPa 0,0 l/m 0 min 0 min 0 W/m 0,0 km/h (0 Bft) 95,74 %
27.08.2023 22:04 15,1 C 13,9 C 12,8 C 89 % 1011,9 hPa 0,0 l/m 0 min 0 min 0 W/m 0,0 km/h (0 Bft) 100,00 %
27.08.2023 22:06 15,1 C 13,9 C 12,8 C 90 % 1011,9 hPa 0,0 l/m 0 min 0 min 0 W/m 3,2 km/h (1 Bft) 100,00 %
27.08.2023 22:08 15,1 C 13,9 C 12,8 C 90 % 1011,9 hPa 0,0 l/m 0 min 0 min 0 W/m 0,0 km/h (0 Bft) 100,00 %
27.08.2023 22:10 15,1 C 13,9 C 12,8 C 89 % 1011,9 hPa 0,0 l/m 0 min 0 min 0 W/m 3,2 km/h (1 Bft) 97,87 %
27.08.2023 22:12 15,0 C 13,9 C 12,8 C 90 % 1011,9 hPa 0,0 l/m 0 min 0 min 0 W/m 3,2 km/h (1 Bft) 100,00 %
27.08.2023 22:14 15,0 C 13,9 C 12,8 C 90 % 1011,9 hPa 0,0 l/m 0 min 0 min 0 W/m 0,0 km/h (0 Bft) 100,00 %
27.08.2023 22:16 14,9 C 13,9 C 12,8 C 90 % 1011,9 hPa 0,0 l/m 0 min 0 min 0 W/m 3,2 km/h (1 Bft) 95,74 %
27.08.2023 22:18 14,9 C 13,9 C 12,8 C 90 % 1011,9 hPa 0,0 l/m 0 min 0 min 0 W/m 0,0 km/h (0 Bft) 97,87 %
27.08.2023 22:20 14,9 C 13,9 C 12,8 C 90 % 1011,9 hPa 0,0 l/m 0 min 0 min 0 W/m 3,2 km/h (1 Bft) 97,87 %
27.08.2023 22:22 14,9 C 13,9 C 12,8 C 90 % 1012,0 hPa 0,0 l/m 0 min 0 min 0 W/m 3,2 km/h (1 Bft) 95,65 %
27.08.2023 22:24 14,8 C 13,9 C 12,8 C 90 % 1012,0 hPa 0,0 l/m 0 min 0 min 0 W/m 3,2 km/h (1 Bft) 97,87 %
27.08.2023 22:26 14,8 C 13,9 C 12,8 C 90 % 1012,0 hPa 0,0 l/m 0 min 0 min 0 W/m 0,0 km/h (0 Bft) 97,87 %
27.08.2023 22:28 14,8 C 13,9 C 12,8 C 90 % 1012,0 hPa 0,0 l/m 0 min 0 min 0 W/m 3,2 km/h (1 Bft) 97,87 %
27.08.2023 22:30 14,8 C 13,3 C 12,8 C 90 % 1012,0 hPa 0,0 l/m 0 min 0 min 0 W/m 0,0 km/h (0 Bft) 97,87 %
27.08.2023 22:32 14,7 C 13,3 C 10,6 C 90 % 1012,1 hPa 0,0 l/m 0 min 0 min 0 W/m 3,2 km/h (1 Bft) 95,74 %
27.08.2023 22:34 14,7 C 13,3 C 10,6 C 90 % 1012,1 hPa 0,0 l/m 0 min 0 min 0 W/m 3,2 km/h (1 Bft) 97,83 %
27.08.2023 22:36 14,7 C 13,3 C 10,6 C 90 % 1012,1 hPa 0,0 l/m 0 min 0 min 0 W/m 3,2 km/h (1 Bft) 97,87 %
27.08.2023 22:38 14,7 C 13,3 C 10,6 C 90 % 1012,1 hPa 0,0 l/m 0 min 0 min 0 W/m 3,2 km/h (1 Bft) 95,74 %
27.08.2023 22:40 14,6 C 13,3 C 10,6 C 90 % 1012,2 hPa 0,0 l/m 0 min 0 min 0 W/m 0,0 km/h (0 Bft) 97,87 %
27.08.2023 22:42 14,6 C 13,3 C 10,6 C 90 % 1012,2 hPa 0,0 l/m 0 min 0 min 0 W/m 0,0 km/h (0 Bft) 97,87 %
27.08.2023 22:44 14,6 C 13,3 C 10,6 C 90 % 1012,2 hPa 0,0 l/m 0 min 0 min 0 W/m 3,2 km/h (1 Bft) 97,87 %
27.08.2023 22:46 14,6 C 13,3 C 10,6 C 90 % 1012,2 hPa 0,0 l/m 0 min 0 min 0 W/m 3,2 km/h (1 Bft) 97,83 %
27.08.2023 22:48 14,5 C 13,3 C 10,0 C 91 % 1012,3 hPa 0,0 l/m 0 min 0 min 0 W/m 0,0 km/h (0 Bft) 97,87 %
27.08.2023 22:50 14,5 C 13,3 C 10,0 C 91 % 1012,3 hPa 0,0 l/m 0 min 0 min 0 W/m 3,2 km/h (1 Bft) 97,87 %
27.08.2023 22:52 14,4 C 13,3 C 10,0 C 91 % 1012,2 hPa 0,0 l/m 0 min 0 min 0 W/m 0,0 km/h (0 Bft) 97,87 %
27.08.2023 22:54 14,4 C 13,3 C 10,0 C 91 % 1012,3 hPa 0,0 l/m 0 min 0 min 0 W/m 0,0 km/h (0 Bft) 95,74 %
27.08.2023 22:56 14,4 C 13,3 C 10,0 C 91 % 1012,2 hPa 0,0 l/m 0 min 0 min 0 W/m 3,2 km/h (1 Bft) 100,00 %
27.08.2023 22:58 14,4 C 13,3 C 10,0 C 91 % 1012,3 hPa 0,0 l/m 0 min 0 min 0 W/m 3,2 km/h (1 Bft) 97,87 %
27.08.2023 23:00 14,4 C 13,3 C 10,0 C 91 % 1012,3 hPa 0,0 l/m 0 min 0 min 0 W/m 3,2 km/h (1 Bft) 97,83 %
27.08.2023 23:02 14,3 C 13,3 C 10,0 C 91 % 1012,3 hPa 0,0 l/m 0 min 0 min 0 W/m 3,2 km/h (1 Bft) 95,83 %
27.08.2023 23:04 14,3 C 13,3 C 10,0 C 91 % 1012,4 hPa 0,0 l/m 0 min 0 min 0 W/m 3,2 km/h (1 Bft) 97,96 %
27.08.2023 23:06 14,3 C 13,3 C 10,6 C 91 % 1012,3 hPa 0,0 l/m 0 min 0 min 0 W/m 3,2 km/h (1 Bft) 98,31 %
27.08.2023 23:08 14,3 C 13,3 C 10,6 C 91 % 1012,4 hPa 0,0 l/m 0 min 0 min 0 W/m 3,2 km/h (1 Bft) 97,14 %
27.08.2023 23:10 14,3 C 13,3 C 10,6 C 91 % 1012,4 hPa 0,0 l/m 0 min 0 min 0 W/m 6,4 km/h (2 Bft) 97,87 %
27.08.2023 23:12 14,3 C 13,3 C 10,6 C 91 % 1012,4 hPa 0,0 l/m 0 min 0 min 0 W/m 3,2 km/h (1 Bft) 97,83 %
27.08.2023 23:14 14,3 C 13,3 C 10,6 C 91 % 1012,4 hPa 0,0 l/m 0 min 0 min 0 W/m 3,2 km/h (1 Bft) 97,87 %
27.08.2023 23:16 14,3 C 13,3 C 10,6 C 91 % 1012,5 hPa 0,0 l/m 0 min 0 min 0 W/m 3,2 km/h (1 Bft) 97,87 %
27.08.2023 23:18 14,3 C 13,3 C 10,6 C 91 % 1012,5 hPa 0,0 l/m 0 min 0 min 0 W/m 3,2 km/h (1 Bft) 93,62 %
27.08.2023 23:20 14,3 C 13,3 C 10,6 C 91 % 1012,5 hPa 0,0 l/m 0 min 0 min 0 W/m 3,2 km/h (1 Bft) 97,87 %
27.08.2023 23:22 14,3 C 13,3 C 10,6 C 91 % 1012,5 hPa 0,0 l/m 0 min 0 min 0 W/m 6,4 km/h (2 Bft) 97,87 %
27.08.2023 23:24 14,3 C 13,3 C 10,6 C 92 % 1012,5 hPa 0,0 l/m 0 min 0 min 0 W/m 3,2 km/h (1 Bft) 97,87 %
27.08.2023 23:26 14,3 C 13,3 C 10,6 C 92 % 1012,6 hPa 0,0 l/m 0 min 0 min 0 W/m 3,2 km/h (1 Bft) 97,83 %
27.08.2023 23:28 14,3 C 13,3 C 10,6 C 92 % 1012,6 hPa 0,0 l/m 0 min 0 min 0 W/m 3,2 km/h (1 Bft) 97,87 %
27.08.2023 23:30 14,3 C 13,3 C 10,6 C 92 % 1012,6 hPa 0,0 l/m 0 min 0 min 0 W/m 9,7 km/h (2 Bft) 97,87 %
27.08.2023 23:32 14,3 C 13,3 C 10,6 C 92 % 1012,6 hPa 0,0 l/m 0 min 0 min 0 W/m 3,2 km/h (1 Bft) 95,74 %
27.08.2023 23:34 14,3 C 13,3 C 10,6 C 92 % 1012,7 hPa 0,0 l/m 0 min 0 min 0 W/m 3,2 km/h (1 Bft) 95,74 %
27.08.2023 23:36 14,3 C 13,3 C 10,6 C 92 % 1012,6 hPa 0,0 l/m 0 min 0 min 0 W/m 3,2 km/h (1 Bft) 95,74 %
27.08.2023 23:38 14,3 C 13,3 C 10,0 C 92 % 1012,7 hPa 0,0 l/m 0 min 0 min 0 W/m 3,2 km/h (1 Bft) 95,74 %
27.08.2023 23:40 14,3 C 13,3 C 10,0 C 92 % 1012,6 hPa 0,0 l/m 0 min 0 min 0 W/m 0,0 km/h (0 Bft) 95,65 %
27.08.2023 23:42 14,2 C 13,3 C 10,0 C 92 % 1012,6 hPa 0,0 l/m 0 min 0 min 0 W/m 0,0 km/h (0 Bft) 95,74 %
27.08.2023 23:44 14,2 C 12,8 C 10,0 C 92 % 1012,6 hPa 0,0 l/m 0 min 0 min 0 W/m 0,0 km/h (0 Bft) 95,74 %
27.08.2023 23:46 14,2 C 12,8 C 10,0 C 92 % 1012,6 hPa 0,0 l/m 0 min 0 min 0 W/m 0,0 km/h (0 Bft) 95,74 %
27.08.2023 23:48 14,2 C 12,8 C 10,0 C 92 % 1012,6 hPa 0,0 l/m 0 min 0 min 0 W/m 0,0 km/h (0 Bft) 95,74 %
27.08.2023 23:50 14,1 C 12,8 C 10,0 C 92 % 1012,6 hPa 0,0 l/m 0 min 0 min 0 W/m 0,0 km/h (0 Bft) 95,74 %
27.08.2023 23:52 14,1 C 12,8 C 10,0 C 92 % 1012,5 hPa 0,0 l/m 0 min 0 min 0 W/m 0,0 km/h (0 Bft) 93,48 %
27.08.2023 23:54 14,1 C 12,8 C 10,0 C 92 % 1012,6 hPa 0,0 l/m 0 min 0 min 0 W/m 0,0 km/h (0 Bft) 97,87 %
27.08.2023 23:56 14,1 C 12,8 C 10,0 C 92 % 1012,5 hPa 0,0 l/m 0 min 0 min 0 W/m 0,0 km/h (0 Bft) 97,87 %
27.08.2023 23:58 14,0 C 12,8 C 9,4 C 92 % 1012,5 hPa 0,0 l/m 0 min 0 min 0 W/m 0,0 km/h (0 Bft) 97,87 %
_ Min-Zeit 05:44 04:20 03:52 14:02 14:40 - - - - 00:00 00:02
Minimum _ 13,7 C 12,8 C 9,4 C 63 % 1008,7 hPa - - - - 0,0 km/h (0 Bft) 11,76 %
_ Max-Zeit 14:46 12:24 12:14 08:18 23:34 15:02 12:08 00:18 13:54 15:02 00:10
Maximum _ 22,1 C 27,8 C 19,4 C 98 % 1012,7 hPa 1,0 l/m 4 min 2 min 914 W/m 38,6 km/h
W-NW (5 Bft)
100,00 %
Durchschnitt _ 16,4 C 16,3 C 12,1 C 88 % 1010,2 hPa #6,4 l/m #5:42 h #1:44 h 278 W/m 5,6 km/h (1 Bft) 97,53 %
© 2023 W. Hausmann